GFSWCAN_prec_cloud_003.txt.gz
Cloud_Cover
100 100 100 100 100 100 100 100 100 100 100 100 100 100 100 100 100 100 100 100 64 86 99 97 100 95 88 10 92 100 100 100 98 100 93 74 100 25 5 15 17 19 75 83 90 98 62 9 5 35 5 6 98 63
100 100 100 100 100 100 100 100 100 100 100 100 100 100 91 100 100 100 100 95 87 100 100 100 100 100 98 87 54 96 91 100 100 89 100 84 100 100 90 98 86 72 100 47 12 5 4 17 94 10 99 59 6 77
100 100 100 100 100 100 100 100 100 100 100 100 100 100 100 100 100 100 100 100 100 100 62 91 100 100 100 100 97 76 83 100 76 54 84 100 100 100 100 100 81 100 100 99 37 6 5 81 27 93 17 11 50 97
100 100 100 100 100 100 100 100 100 100 100 100 100 100 100 100 98 100 100 100 100 100 100 100 100 100 95 100 100 100 99 100 100 100 100 100 100 100 100 100 100 100 100 85 29 25 5 58 17 15 5 64 100 100
100 100 100 100 100 100 100 100 100 100 100 100 100 100 100 100 100 70 100 100 100 100 100 98 80 100 100 100 100 100 100 100 100 100 100 100 96 100 94 96 100 100 100 100 33 5 26 5 58 100 89 100 100 100
100 100 100 100 100 100 100 100 100 100 100 100 100 100 100 100 96 100 100 95 100 100 100 100 11 100 100 100 97 100 100 100 100 100 100 100 100 100 100 100 100 100 100 99 55 5 18 26 57 100 100 100 100 100
100 100 100 100 100 100 100 100 100 100 100 100 100 100 100 100 100 100 100 95 100 100 100 100 100 100 100 100 100 100 100 100 100 100 100 100 100 100 100 100 100 100 100 48 56 95 100 100 100 97 99 100 100 100
100 100 100 100 100 100 100 100 100 100 100 100 100 100 100 100 100 100 100 100 100 100 100 100 100 100 100 100 100 100 100 100 100 100 100 100 100 100 100 100 100 88 100 100 100 100 100 100 89 98 100 93 99 100
100 100 100 100 100 100 100 100 100 100 100 100 100 100 100 100 100 100 100 100 100 100 100 100 100 100 100 98 100 100 100 100 100 100 100 100 100 100 100 100 27 44 18 86 100 99 78 72 92 98 100 98 99 100
96 100 100 100 100 100 100 100 100 100 100 100 100 100 100 100 100 99 100 100 100 100 100 100 100 100 66 100 100 100 100 100 100 95 92 100 69 47 100 44 48 28 100 92 100 100 100 100 100 100 100 100 99 14
97 100 100 100 100 100 100 100 100 100 100 100 100 100 100 100 100 100 100 100 100 100 100 100 100 100 100 100 100 100 100 100 98 6 64 30 80 89 8 5 5 54 77 68 81 97 90 100 100 100 76 40 20 4
88 100 100 100 100 100 100 100 100 100 100 100 100 100 100 100 100 100 100 100 100 100 100 99 100 100 100 100 100 100 99 99 78 56 88 89 64 92 5 38 100 61 32 95 100 100 92 81 100 99 94 59 18 72
100 100 100 100 100 100 100 100 100 100 100 100 100 100 95 100 100 100 84 99 98 100 100 100 100 100 100 100 100 96 96 88 25 82 100 88 100 29 12 37 66 96 88 56 91 100 100 100 34 70 46 14 90 100
100 100 100 100 100 100 99 100 100 100 100 100 100 100 100 100 80 93 96 100 100 100 100 100 100 100 88 100 100 98 62 81 97 96 100 100 70 5 18 77 98 96 100 100 97 28 3 0 29 100 85 35 100 100
100 100 100 100 100 100 100 100 100 100 100 99 100 100 94 100 100 100 100 100 100 100 100 100 100 100 91 100 100 100 100 100 100 100 100 48 62 80 51 73 77 12 5 12 4 0 0 0 43 100 100 95 100 98
100 100 100 100 100 100 100 100 100 100 100 100 97 100 100 100 100 100 100 100 100 100 100 100 100 100 100 100 100 100 100 100 100 100 72 95 100 96 19 13 5 19 20 0 0 0 0 14 66 100 100 70 100 100
84 88 100 100 100 100 100 100 100 100 100 89 90 100 100 100 100 100 100 100 100 100 100 100 100 100 100 100 100 100 100 100 100 90 100 100 28 5 5 0 0 0 0 0 0 0 1 13 97 81 96 16 100 99
100 100 100 100 100 93 86 100 100 85 96 100 100 99 100 100 100 100 100 100 100 100 100 100 100 100 100 100 98 100 98 86 34 16 5 5 5 5 2 0 0 4 0 0 0 0 6 17 24 76 100 100 100 88
100 95 99 100 100 100 97 83 65 36 14 5 10 18 6 43 10 6 62 70 77 100 100 100 100 48 47 53 5 5 5 3 5 5 2 0 0 4 0 0 0 0 0 0 5 5 11 32 62 98 100 100 85 100
86 5 94 100 91 98 96 85 15 45 84 74 13 8 5 8 19 87 100 84 60 92 93 83 6 5 5 4 1 0 0 0 0 2 0 0 0 5 3 0 0 2 5 5 31 84 86 100 100 100 93 100 100 100
93 100 97 100 100 92 53 5 35 73 31 24 61 28 52 84 79 97 100 18 100 100 48 5 0 0 0 0 0 0 0 4 5 57 5 5 0 0 2 5 5 5 24 14 46 5 95 100 100 100 100 100 100 100
72 94 100 100 92 97 37 25 47 54 24 29 20 16 70 8 37 10 5 76 70 5 4 0 0 0 0 0 0 1 5 5 52 5 4 0 21 17 6 94 17 24 53 36 83 94 100 100 100 100 100 100 100 100
100 100 100 100 95 86 28 36 63 95 79 35 10 5 9 5 5 1 11 5 5 2 0 0 0 0 0 0 4 5 5 5 3 3 7 54 100 100 100 73 100 99 100 100 100 100 100 100 100 100 100 100 100 100
74 99 91 98 56 66 31 95 91 78 27 48 6 5 5 5 5 5 19 5 1 5 0 0 0 0 0 5 5 5 1 3 6 48 91 100 99 100 96 91 99 100 95 100 100 100 100 100 100 100 100 100 100 100
100 99 100 95 49 69 96 88 99 47 5 5 5 5 5 4 5 5 5 5 6 5 3 1 0 0 1 0 0 3 5 4 4 10 100 73 82 100 100 100 90 97 100 100 100 100 100 100 100 100 100 100 100 100
90 58 77 50 97 76 48 9 5 5 5 8 27 5 9 44 55 22 5 5 5 4 4 6 5 14 4 42 26 12 8 17 11 26 7 61 100 100 100 100 100 93 92 100 100 100 100 100 95 99 100 100 100 100
96 56 42 33 26 20 19 10 5 5 6 40 6 26 89 100 51 5 5 4 3 7 28 20 12 69 88 99 99 97 88 37 49 37 81 100 100 100 100 100 100 100 80 100 100 100 100 89 96 100 100 100 100 100
77 99 100 100 91 44 18 5 5 35 16 44 30 98 80 12 5 18 61 93 59 17 43 100 100 97 89 70 85 72 96 78 100 97 99 94 99 97 100 98 100 100 100 100 100 100 100 100 100 100 100 100 100 100
98 100 100 100 78 26 5 5 5 5 56 67 70 38 6 9 5 7 53 98 97 99 98 100 100 100 100 100 99 99 100 100 100 100 100 75 89 98 89 36 48 99 100 100 99 100 100 100 97 98 100 96 98 95
100 100 58 5 5 5 7 16 4 51 100 100 100 88 14 48 81 65 37 65 75 100 77 69 82 100 100 100 74 86 99 100 100 100 100 85 80 72 100 100 100 100 100 100 100 99 99 97 100 100 100 100 100 100
8 5 5 5 5 5 34 100 100 45 6 25 80 58 8 35 26 66 43 94 100 100 100 100 100 100 100 100 100 100 99 99 91 80 97 95 100 100 100 99 87 100 88 81 74 71 88 100 100 100 100 100 100 100
42 87 98 98 53 10 95 96 34 14 5 6 24 65 77 99 100 100 98 100 100 100 100 100 100 100 100 100 98 96 94 83 84 78 84 79 81 86 90 95 98 82 84 100 100 100 100 100 100 100 100 100 100 100
86 100 97 100 81 25 46 96 37 7 5 5 5 30 99 100 99 100 96 100 100 100 99 100 100 100 100 100 100 92 90 94 97 91 80 80 81 74 70 70 73 79 84 98 100 100 100 100 100 100 100 100 100 100

GFSWCAN_prec_cloud_006.txt.gz
Cloud_Cover
100 100 100 100 100 100 100 100 100 100 100 100 100 100 100 100 100 100 100 100 100 100 100 100 100 43 6 5 17 6 11 69 98 98 65 47 49 6 41 31 59 37 80 58 68 97 67 55 100 100 93 76 86 5
100 100 100 100 100 100 100 100 100 100 100 100 100 100 100 100 100 100 100 97 83 99 97 100 100 73 96 99 5 5 7 5 58 88 92 77 99 100 98 100 100 88 99 73 13 8 5 100 80 67 96 28 5 55
100 100 100 100 100 100 100 100 100 100 100 100 100 100 95 97 100 100 100 38 47 100 93 100 100 100 100 30 15 5 65 78 20 67 51 96 100 98 100 100 99 100 100 100 79 49 9 38 49 100 100 100 100 100
100 100 100 100 100 100 100 100 100 100 100 100 99 79 33 27 8 69 60 42 58 100 100 92 100 100 100 75 13 7 60 89 91 96 100 100 100 100 100 100 100 100 100 90 27 19 8 68 100 100 100 100 100 100
100 100 100 100 100 100 100 100 100 100 100 100 100 100 56 45 100 100 96 100 100 100 100 99 100 100 100 92 64 22 84 100 100 98 100 100 100 100 100 100 100 100 100 98 20 65 82 97 100 100 100 100 100 100
100 100 100 100 100 100 100 100 100 100 100 100 100 100 100 100 100 100 100 100 100 100 100 100 91 100 100 100 99 97 51 70 100 100 100 84 100 100 100 100 100 100 89 93 100 100 100 85 100 100 100 100 100 100
100 95 100 100 100 100 100 100 100 100 100 100 100 100 100 100 100 100 100 100 100 100 100 100 100 100 100 100 100 98 100 100 83 77 100 100 100 100 100 100 100 100 100 100 100 100 83 52 100 100 100 100 100 100
100 100 100 100 100 100 100 100 100 100 100 100 100 100 100 100 100 100 100 100 100 100 100 100 100 100 100 100 100 100 100 100 100 100 100 100 100 100 100 100 100 100 100 100 100 100 100 100 100 99 98 100 100 100
100 100 100 100 100 100 100 100 100 100 100 100 100 100 100 100 100 100 100 100 100 100 100 100 100 100 100 100 100 100 100 100 100 100 100 100 100 100 100 100 86 99 100 100 100 100 100 100 100 100 100 100 100 94
100 100 100 100 100 100 100 100 100 100 100 100 100 100 100 100 100 100 100 100 100 100 100 100 100 100 100 100 100 100 100 100 100 98 96 100 88 100 76 32 44 5 5 11 7 66 91 100 100 97 100 100 100 100
100 100 100 100 100 100 100 100 100 100 100 100 100 100 100 100 100 100 100 100 100 100 100 100 100 100 100 100 100 100 100 100 100 26 99 71 86 9 5 5 5 5 10 95 74 91 97 90 29 5 5 14 6 26
100 100 100 100 100 100 100 100 100 99 100 100 97 100 100 100 100 100 100 100 100 98 100 100 100 100 100 100 100 100 100 100 99 80 100 89 13 62 7 37 16 22 88 100 100 100 100 100 100 99 37 5 5 17
100 100 100 100 100 100 98 100 96 100 100 100 100 100 100 100 100 100 100 100 100 100 100 100 100 100 100 100 100 100 100 82 66 91 99 96 100 95 98 98 100 100 100 100 100 100 100 100 100 91 73 86 89 66
100 100 100 30 100 100 100 100 100 100 100 100 100 96 90 98 95 92 88 100 100 100 100 100 100 100 100 82 89 100 46 62 84 100 96 100 81 93 99 100 100 100 100 100 99 97 48 5 2 7 99 100 100 88
100 100 100 100 91 100 100 100 100 100 100 100 92 81 90 100 100 100 100 100 100 100 100 100 100 96 93 100 100 100 100 100 100 100 68 67 91 88 97 91 85 74 78 10 41 4 0 0 0 0 0 29 61 47
100 100 100 100 100 100 100 100 100 100 100 88 89 100 100 100 100 100 100 100 100 100 100 100 100 100 100 100 100 100 96 100 100 25 13 38 99 98 100 92 78 29 5 4 0 0 0 0 0 5 21 100 50 97
100 100 99 100 100 100 100 100 85 96 77 86 95 99 100 100 100 100 100 100 100 100 100 100 100 98 95 96 100 100 100 90 51 92 99 100 100 94 91 71 8 5 2 0 0 0 0 0 36 98 100 12 11 85
100 90 99 100 90 98 82 100 100 100 100 64 26 13 92 81 93 96 98 100 100 100 100 100 95 29 71 87 98 88 70 54 7 5 5 5 5 5 1 0 0 0 0 0 0 3 5 5 7 55 42 38 89 100
63 83 97 100 91 79 90 91 94 53 31 60 56 69 95 100 100 100 100 96 100 100 100 65 33 70 54 22 5 5 5 18 3 1 2 1 0 0 0 0 0 0 0 5 5 5 5 5 25 7 66 92 86 54
100 100 100 100 96 99 100 96 60 90 12 21 21 5 5 6 30 65 85 61 89 100 100 98 36 5 5 4 5 5 5 4 2 2 0 0 1 0 0 0 0 1 5 5 5 62 5 5 5 21 86 100 100 100
100 100 100 94 100 80 28 10 6 5 5 5 6 6 5 80 92 46 100 84 100 100 99 34 5 4 2 5 5 5 0 2 2 5 5 4 0 4 0 0 5 5 5 33 91 98 86 100 100 100 100 100 100 100
100 100 100 98 94 36 29 5 5 21 13 5 27 64 68 100 100 100 59 100 99 77 5 2 0 0 0 0 0 1 0 0 5 5 5 5 7 4 0 3 29 26 44 58 89 100 78 100 100 100 100 100 100 100
69 79 90 87 71 47 36 6 15 83 78 51 91 87 32 45 15 6 78 19 5 5 5 0 0 0 0 0 0 0 0 5 5 5 3 0 2 13 22 5 61 99 100 98 100 100 100 99 100 100 100 100 100 100
84 98 100 100 70 44 38 92 98 100 100 100 93 62 12 30 8 58 42 30 5 5 2 0 0 0 2 1 2 2 0 0 0 0 1 28 59 11 18 33 100 100 100 96 100 100 100 100 63 92 100 100 100 100
54 78 77 95 100 100 100 99 100 100 100 92 25 5 5 6 9 48 10 2 4 2 3 4 5 5 5 2 5 3 0 0 3 5 17 16 43 5 5 46 100 100 99 100 90 100 100 100 100 93 99 90 100 100
66 64 93 86 91 58 90 100 99 75 72 23 28 5 28 5 16 20 5 5 5 5 5 5 5 5 13 6 5 5 5 17 18 23 66 100 82 71 73 100 95 56 54 99 100 100 100 100 100 100 82 80 87 80
73 76 97 92 99 100 77 38 24 5 8 5 13 6 7 78 41 5 5 5 5 16 47 93 64 46 23 66 53 74 47 31 5 6 61 75 98 90 84 81 85 75 94 100 100 100 100 100 100 100 88 100 99 100
91 94 99 100 63 44 32 35 15 31 5 24 5 8 68 14 3 5 5 56 98 100 97 77 64 78 57 16 61 43 68 60 77 42 17 65 86 37 92 99 92 76 73 97 100 100 100 100 100 100 100 96 100 100
87 100 100 100 100 100 59 15 5 5 5 5 5 5 5 5 5 5 24 100 100 100 32 24 89 71 100 95 94 99 91 100 96 60 72 92 100 100 95 47 100 100 100 100 100 100 100 100 100 100 100 100 100 100
100 100 100 96 63 52 5 72 7 5 5 5 43 9 5 6 22 100 71 38 93 100 100 100 91 100 100 100 100 99 98 96 100 100 100 96 94 80 97 100 95 100 100 100 94 95 76 92 95 100 100 100 100 100
42 46 5 18 5 30 31 19 6 28 36 28 5 5 5 4 17 82 80 62 96 100 100 100 100 100 99 100 97 99 94 89 99 98 99 81 82 87 100 99 91 100 99 91 90 78 92 100 100 100 100 100 100 100
86 50 82 82 23 26 73 98 96 90 33 60 6 26 5 20 79 98 94 100 100 100 100 100 100 100 93 97 87 71 93 100 100 100 100 99 99 99 92 80 83 81 74 83 85 90 95 93 96 100 100 100 100 100
45 40 38 67 21 18 5 5 11 39 33 27 5 5 6 77 100 100 95 89 100 100 100 100 100 100 100 100 100 100 100 100 100 100 99 93 93 98 100 100 99 94 85 93 97 97 94 95 98 100 100 100 100 100

GFSWCAN_prec_cloud_009.txt.gz
Cloud_Cover
100 100 100 100 100 100 100 100 100 100 100 100 97 76 56 80 42 31 5 6 5 39 32 5 2 0 2 5 5 5 5 10 96 99 40 58 81 48 56 56 98 66 96 100 91 100 91 22 67 81 87 100 94 5
100 100 100 100 100 100 100 100 100 100 100 100 100 100 100 100 100 100 98 75 92 93 62 94 100 93 29 29 6 5 5 25 6 73 78 82 96 86 81 96 100 91 100 80 96 32 76 93 100 78 62 58 5 44
100 100 100 100 100 100 100 100 100 100 100 100 100 100 100 100 100 100 100 100 100 100 100 100 100 98 40 6 5 5 53 5 5 5 53 76 85 98 91 100 100 100 100 92 99 72 100 16 15 100 100 100 100 100
100 100 100 100 100 100 100 100 100 100 100 100 100 100 100 100 100 100 100 100 100 100 100 88 52 5 5 58 66 28 6 5 5 38 100 100 100 100 99 89 95 100 100 100 48 36 5 97 100 100 100 100 100 100
100 100 100 100 100 100 100 100 100 100 100 100 100 100 100 100 100 100 91 100 98 79 100 91 65 14 38 59 99 99 99 100 96 100 100 100 98 93 100 100 100 100 97 88 98 11 99 100 100 100 100 99 100 100
100 100 100 100 100 100 100 100 100 100 100 100 100 100 100 100 100 100 100 100 100 90 100 100 100 100 100 100 100 100 100 100 99 100 100 100 100 100 100 100 92 100 95 100 100 100 100 84 100 100 100 100 100 99
100 100 100 100 100 100 100 100 100 100 100 100 100 100 100 100 100 100 100 100 100 100 100 100 100 100 100 100 100 100 100 100 58 100 100 100 100 100 100 100 100 100 100 100 100 100 100 100 100 100 100 95 40 100
100 100 100 100 100 100 100 100 100 100 100 100 100 100 100 100 100 100 100 100 100 100 100 100 100 100 100 100 100 100 100 100 100 100 100 100 90 100 100 100 100 100 100 100 61 61 99 99 100 98 90 100 100 100
100 100 100 100 100 100 100 100 100 100 100 100 100 100 100 100 100 100 100 100 100 100 100 100 100 100 100 100 100 100 100 100 100 100 100 100 100 100 100 100 100 100 91 94 80 93 100 100 100 100 97 100 91 63
100 100 100 100 100 100 100 100 100 100 100 100 100 100 100 100 100 100 100 100 100 100 100 100 100 100 92 100 100 100 100 100 100 91 79 100 100 100 100 100 99 67 5 5 70 100 95 85 6 7 61 96 100 83
100 100 100 100 100 100 100 100 100 100 100 100 100 100 100 100 100 100 100 100 100 100 100 100 100 100 100 100 100 100 100 100 99 7 97 94 89 5 16 16 5 8 6 31 10 9 24 100 99 54 10 100 100 83
100 100 100 100 100 100 100 100 100 100 100 100 100 100 100 100 100 100 100 100 100 59 98 100 100 100 100 100 100 100 91 99 81 90 100 98 66 53 88 73 85 100 96 100 100 100 100 100 100 100 91 11 17 81
100 100 100 100 100 100 100 100 100 100 100 100 100 100 100 100 100 100 100 100 98 100 100 100 100 100 100 100 100 100 100 82 82 98 85 94 100 93 96 100 100 100 94 100 100 100 99 24 8 5 4 5 74 100
100 100 100 100 100 100 100 100 100 100 100 100 100 100 100 100 96 95 100 100 100 100 100 100 100 100 98 100 98 98 74 92 100 100 100 100 85 97 99 100 98 100 100 100 96 8 5 1 0 1 5 1 13 36
100 100 100 100 100 100 100 100 100 100 100 100 90 100 100 82 82 100 100 100 100 100 100 100 100 88 98 100 98 93 92 99 100 100 53 34 95 96 96 99 56 17 28 10 8 1 0 0 0 0 0 0 5 80
100 100 100 100 100 100 100 100 100 100 100 98 99 98 98 100 99 100 100 100 100 100 100 99 87 60 82 83 63 100 100 100 96 19 55 90 99 99 62 52 27 23 2 0 0 0 0 0 0 4 4 4 17 26
93 100 100 100 100 100 100 100 100 100 100 96 85 98 90 100 96 99 99 100 100 100 100 100 100 17 38 82 90 100 100 79 6 5 42 19 56 20 5 2 0 0 0 0 0 0 0 1 5 6 6 5 5 5
100 90 100 100 100 100 100 100 100 100 100 100 99 100 100 100 100 88 89 58 74 100 96 91 8 5 30 14 77 14 5 5 5 5 5 3 1 3 3 0 0 0 0 0 0 5 5 6 23 10 29 5 9 8
100 100 100 100 99 100 100 100 100 100 94 87 91 76 71 94 91 95 88 52 53 91 100 100 10 10 55 5 5 5 7 6 5 1 4 2 5 5 5 2 0 0 0 2 5 5 7 98 40 23 80 99 100 88
98 100 100 100 100 98 99 84 22 39 11 11 32 26 7 6 57 88 100 61 26 90 100 93 26 9 5 5 5 5 5 5 5 5 0 1 5 5 2 4 0 0 4 5 5 64 8 63 87 73 96 100 100 100
100 100 94 67 88 100 79 27 9 5 7 5 14 6 11 84 100 92 48 90 86 100 100 58 5 5 5 5 5 5 5 5 5 5 4 4 2 5 2 0 0 5 20 35 88 50 84 91 92 75 100 100 100 100
100 100 100 98 100 95 96 86 90 40 6 16 6 33 22 52 95 96 74 100 61 5 5 5 0 0 0 1 0 3 0 2 5 4 1 5 6 5 0 1 33 49 49 94 99 100 100 85 100 98 100 100 100 100
100 99 99 98 100 74 79 7 5 12 16 21 43 8 13 56 34 61 92 94 18 5 5 2 2 0 0 0 2 3 5 3 5 3 5 0 0 0 7 27 77 19 8 5 70 100 100 100 100 100 98 100 100 100
100 98 100 100 89 60 59 100 38 54 53 64 77 88 32 58 40 91 74 65 7 6 5 5 5 5 5 5 5 5 2 4 3 1 0 1 5 6 15 6 5 5 25 19 99 100 100 100 100 99 82 100 100 99
64 96 37 82 100 92 82 100 99 91 100 98 84 44 5 42 13 87 64 5 5 5 1 5 5 5 5 5 5 5 5 5 2 0 3 5 45 75 18 5 5 61 73 60 73 86 100 100 98 100 100 91 72 83
32 71 93 96 100 44 66 98 100 90 91 82 61 20 52 8 11 5 5 5 5 5 5 5 5 9 5 5 5 13 11 12 44 18 9 85 74 61 12 7 67 68 95 87 100 100 100 100 100 100 100 100 100 82
92 93 98 65 89 85 73 69 38 39 89 32 11 5 9 5 12 5 5 6 5 5 5 100 96 70 59 46 17 5 5 10 30 65 5 36 57 93 98 93 87 78 87 94 100 100 100 100 100 100 98 100 100 100
86 92 99 100 87 46 8 66 36 34 5 31 5 18 5 5 5 5 5 5 5 70 100 86 24 8 6 5 10 27 80 98 77 76 84 98 100 90 86 98 100 89 90 100 100 100 100 100 100 100 90 99 100 100
100 100 87 73 16 41 8 5 5 5 46 35 26 11 55 16 5 5 4 5 39 49 43 5 29 56 45 40 96 100 90 89 84 97 98 73 94 95 88 77 100 100 100 100 100 99 88 78 85 84 94 91 100 100
100 98 97 100 100 78 26 53 7 5 21 95 99 67 13 5 9 46 46 66 66 79 43 63 78 91 96 100 87 82 98 98 100 99 100 87 83 62 72 87 100 100 100 100 92 80 65 43 59 47 48 97 100 100
75 62 40 62 15 5 5 6 38 65 40 5 13 22 5 5 88 90 97 98 92 100 100 99 98 96 100 100 100 100 100 95 92 100 100 92 90 98 100 99 100 96 99 86 100 98 86 89 79 74 83 97 100 100
98 37 57 31 50 49 80 76 48 5 12 86 6 57 70 74 97 97 99 84 100 100 100 99 100 100 95 89 97 100 89 99 100 100 100 100 100 100 96 82 61 71 70 88 92 95 83 83 93 100 100 100 100 100
58 52 78 90 64 50 18 5 12 48 57 40 1 14 7 69 100 100 100 98 100 100 100 100 100 100 100 100 99 99 93 86 89 99 100 99 92 74 70 54 53 58 65 76 77 79 76 72 73 62 73 96 100 100

GFSWCAN_prec_cloud_015.txt.gz
Cloud_Cover
100 100 100 100 100 100 100 100 100 100 100 100 100 100 100 100 100 100 100 100 100 98 55 60 48 26 24 9 12 61 88 15 89 100 100 99 7 6 8 5 5 12 77 79 95 97 57 26 83 96 94 66 100 58
100 100 100 100 100 100 100 100 100 100 100 100 99 100 100 100 100 100 100 100 100 100 100 99 19 5 23 62 69 19 6 6 5 74 60 90 56 42 10 14 18 99 23 99 100 32 5 84 5 92 86 100 100 100
100 100 100 100 100 100 100 100 100 100 100 100 100 100 100 100 100 100 100 100 100 100 100 96 11 11 43 6 5 18 5 6 52 5 7 22 10 6 46 50 6 100 70 88 95 53 33 83 61 64 100 100 100 100
100 100 100 100 100 100 100 100 100 100 100 100 100 100 100 100 100 100 100 100 100 100 100 90 44 5 5 5 22 23 38 87 99 38 100 100 93 56 33 17 75 95 84 63 51 28 72 97 100 100 100 99 96 99
100 100 100 100 100 100 100 100 100 100 100 100 100 100 100 100 100 100 93 99 97 38 100 95 5 40 40 39 70 90 99 100 100 100 100 100 100 97 100 100 78 100 59 86 88 100 100 86 100 100 100 78 30 96
100 100 100 100 100 100 100 100 100 100 100 100 100 100 100 100 100 100 100 100 98 76 100 100 87 66 85 100 100 100 100 48 100 100 100 100 100 90 100 100 100 65 97 100 100 96 100 100 100 100 86 85 6 6
100 100 100 100 100 100 100 100 100 100 100 100 100 100 100 100 100 100 100 100 100 100 100 100 100 100 100 100 100 100 100 100 83 100 100 100 100 95 100 100 70 100 100 85 74 100 75 100 98 5 5 5 5 5
100 100 100 100 100 100 100 100 100 100 100 100 100 100 100 100 100 100 100 100 100 100 100 100 100 100 100 100 100 100 100 100 100 100 100 100 100 100 100 100 100 99 88 100 100 100 92 90 69 50 90 32 75 5
46 99 100 100 100 100 100 100 100 100 100 100 100 100 100 100 100 100 100 100 100 100 100 100 100 100 100 100 100 100 100 100 94 100 100 100 100 100 99 80 57 100 100 100 100 93 72 81 73 98 90 67 7 5
86 80 65 89 100 100 100 100 100 100 100 100 100 100 100 100 100 100 100 100 100 100 100 100 100 100 100 100 100 100 100 100 90 94 99 100 100 100 100 100 100 100 100 95 94 66 16 9 82 8 5 66 85 5
100 98 92 98 100 100 100 100 100 100 100 100 100 100 100 100 100 100 100 100 100 100 100 100 100 100 100 99 100 100 100 96 100 68 100 89 99 100 100 100 100 97 99 97 69 26 27 23 5 5 5 5 3 0
100 100 100 90 100 100 100 100 100 100 100 100 100 100 100 100 100 100 100 100 100 100 100 100 100 100 100 100 100 100 100 100 100 74 94 89 68 80 100 100 93 92 95 47 14 95 5 5 12 3 0 0 2 4
100 100 100 100 99 100 100 100 100 100 100 100 100 100 100 100 100 100 100 100 100 100 100 100 100 100 100 100 100 100 94 98 84 97 56 21 58 83 100 98 73 66 10 40 100 17 5 5 7 1 2 5 5 5
100 100 100 100 99 100 100 100 100 100 100 100 100 100 100 100 100 85 94 100 100 100 100 100 100 100 100 100 100 98 98 90 92 93 97 75 72 67 68 100 100 99 100 100 87 23 5 13 92 2 4 5 5 5
100 100 100 100 100 96 100 100 100 100 100 100 100 100 100 100 100 100 100 100 100 100 100 100 100 100 100 100 100 96 100 93 100 96 82 26 31 100 100 100 81 99 100 100 58 6 72 63 0 5 5 5 5 5
100 100 100 100 100 100 100 100 100 100 100 100 100 100 100 100 100 100 100 100 100 100 100 100 100 100 100 100 100 100 100 100 100 68 18 56 100 100 100 99 100 100 100 95 63 75 7 0 2 5 5 5 5 5
100 100 67 100 100 100 100 100 100 100 100 100 100 100 100 100 100 100 100 100 100 100 100 100 100 100 100 100 100 100 100 100 100 100 100 100 100 100 100 100 100 100 99 43 6 5 0 0 5 5 8 5 5 6
100 100 100 100 100 100 100 100 100 100 100 100 100 100 100 100 100 100 100 100 100 100 100 100 100 100 100 100 100 100 100 100 100 100 100 100 100 100 100 100 100 100 51 5 5 1 0 7 30 44 75 45 64 100
100 100 100 100 100 100 100 100 100 100 100 100 100 100 100 100 100 100 100 100 100 100 100 100 100 100 100 100 100 100 100 100 100 100 98 100 100 100 100 100 43 5 5 5 0 0 5 12 17 8 45 100 100 100
100 100 100 100 100 100 99 100 100 99 99 100 100 100 100 100 100 100 100 100 100 100 100 100 100 100 100 100 100 100 100 100 98 100 100 100 94 42 17 0 1 4 5 2 3 67 6 5 5 9 100 100 100 100
100 100 100 100 100 93 96 93 64 56 100 100 100 100 100 100 100 100 100 100 100 100 100 100 100 100 100 100 100 100 100 100 100 100 100 6 1 5 2 5 5 5 5 5 22 16 30 5 5 90 100 100 100 100
100 100 100 100 100 97 92 100 100 96 44 32 65 55 81 84 96 99 100 100 100 91 90 87 82 76 9 48 71 91 72 77 33 5 5 5 5 5 5 5 5 5 5 5 7 22 6 6 88 100 100 100 100 100
100 100 100 100 100 52 72 63 96 99 82 97 90 78 35 60 64 100 100 97 26 5 5 5 3 0 0 1 5 3 5 5 5 5 5 5 5 5 5 5 5 5 32 8 5 5 12 74 99 76 99 100 100 100
100 100 100 100 100 100 100 65 47 90 73 84 86 93 95 98 96 100 100 93 18 5 5 5 5 5 5 5 5 5 5 5 5 5 5 5 5 5 5 5 5 9 75 47 6 14 24 68 97 100 100 100 100 100
100 100 100 100 100 100 57 84 100 100 21 95 99 90 33 89 95 100 100 45 5 5 5 2 5 5 5 5 5 5 5 6 5 5 2 61 5 5 5 5 21 98 92 71 84 88 77 85 90 100 100 100 100 100
99 100 100 100 85 7 78 99 99 100 100 100 100 88 66 64 70 26 5 5 5 5 5 4 5 3 4 5 5 13 90 84 62 27 5 5 9 12 6 8 24 42 100 100 86 77 72 77 100 89 96 90 95 100
100 98 90 34 34 31 95 97 99 85 100 98 88 99 60 34 43 5 5 5 5 5 5 32 46 21 4 4 5 5 5 5 5 25 75 100 71 84 93 96 85 84 100 100 99 77 91 100 100 98 91 100 100 100
100 100 100 100 99 52 58 90 93 93 45 5 6 21 5 5 5 55 98 99 100 79 41 72 100 100 18 6 5 11 10 24 92 100 97 100 98 78 80 82 98 91 94 95 89 99 100 95 99 97 98 98 98 82
74 88 74 100 100 100 49 6 28 42 16 5 9 35 90 100 94 97 88 92 73 99 96 97 87 22 48 16 39 100 100 100 100 100 100 99 100 93 91 76 77 86 97 95 100 100 100 98 100 98 91 95 86 66
89 95 82 100 94 59 6 32 13 74 52 57 59 31 12 72 100 97 86 58 63 97 98 98 100 100 98 97 73 96 98 99 100 100 100 100 100 96 91 84 87 97 97 98 87 87 86 76 79 83 72 53 70 79
97 99 85 88 81 5 24 73 55 71 71 58 87 19 7 95 96 86 94 72 57 87 85 87 100 100 98 100 100 100 100 100 100 100 100 100 100 100 100 98 89 86 99 94 88 89 76 57 59 57 46 71 73 83
100 95 99 100 50 6 81 80 95 68 88 13 6 78 91 90 98 97 98 86 38 64 89 100 98 95 100 100 100 100 100 100 100 100 100 100 100 100 100 98 100 93 64 58 59 54 33 48 61 71 78 81 83 88
98 100 100 100 84 23 5 22 15 46 56 75 40 99 100 91 93 98 98 91 99 100 100 100 100 100 100 100 100 100 100 100 100 100 100 100 100 100 99 88 66 44 47 40 58 33 23 20 73 73 76 79 83 86

GFSWCAN_prec_cloud_021.txt.gz
Cloud_Cover
100 100 100 100 100 100 100 100 100 100 100 100 100 100 100 100 100 100 100 100 100 100 100 92 98 53 79 97 100 100 100 100 93 100 94 55 97 16 5 5 7 32 45 76 87 100 66 23 77 81 66 10 100 69
100 100 100 100 100 100 100 100 100 100 100 100 100 100 100 100 100 100 100 100 100 100 100 100 100 100 99 100 100 100 100 100 100 100 78 87 100 90 38 75 14 11 7 40 53 14 99 100 100 97 26 100 96 84
100 100 100 100 100 100 100 100 100 100 100 100 100 100 100 100 100 100 100 100 100 100 100 100 100 100 100 100 100 88 10 48 52 10 11 80 100 10 97 47 79 69 42 92 17 13 99 100 100 97 73 92 39 8
100 100 100 100 100 100 100 100 100 100 100 100 100 100 100 100 100 100 100 100 100 100 100 100 100 100 100 100 100 90 70 42 95 99 99 100 100 5 62 36 100 48 42 32 83 62 78 44 91 94 99 100 92 22
100 100 100 100 100 100 100 100 100 100 100 100 100 100 100 100 100 100 100 100 79 87 93 100 100 100 100 100 100 68 74 97 100 100 100 80 5 18 46 45 100 100 100 56 41 100 39 100 92 94 100 77 36 46
100 100 100 100 100 100 100 100 100 100 100 100 100 100 100 100 100 100 100 100 100 100 100 100 100 100 100 100 100 100 100 100 100 91 88 26 46 9 100 100 100 100 92 100 37 80 55 35 100 100 81 48 10 5
100 100 100 100 100 100 100 100 100 100 100 100 100 100 100 100 100 95 95 100 100 100 100 100 88 90 100 100 100 100 100 100 100 94 93 86 94 75 100 99 100 38 93 67 59 78 97 100 99 68 48 30 15 7
100 100 100 100 100 100 100 100 100 100 100 100 100 100 100 100 100 98 98 100 72 73 93 89 85 91 100 100 100 100 100 100 100 100 100 100 100 100 100 100 95 75 48 56 72 46 100 96 45 60 18 5 32 46
100 100 100 100 100 98 100 100 100 100 100 100 100 100 100 100 100 100 100 100 100 100 90 100 100 100 100 100 100 100 100 100 100 100 100 100 100 98 100 100 100 61 35 94 66 90 61 92 100 100 60 57 22 5
100 100 100 100 96 80 86 100 100 100 100 100 100 100 100 100 100 100 100 100 100 100 100 100 100 100 100 100 100 100 100 100 100 100 100 100 100 100 100 100 100 66 90 99 76 52 83 100 100 98 81 5 5 5
100 100 99 100 100 97 100 92 100 100 100 100 100 100 100 100 100 100 100 100 100 100 100 100 100 100 100 100 100 100 100 100 100 100 100 100 82 100 100 100 91 92 98 99 100 100 100 100 100 12 5 5 5 5
100 100 100 100 100 100 100 100 100 100 100 100 100 100 100 100 100 100 100 100 100 100 100 100 100 100 99 100 100 100 100 100 100 84 100 100 94 100 99 96 100 100 100 100 100 100 100 100 68 5 5 5 5 5
100 100 100 100 100 98 100 100 100 100 100 100 100 100 100 100 100 100 100 100 100 100 100 100 100 100 100 100 100 100 100 100 99 100 82 99 100 100 100 100 100 96 82 59 15 9 13 28 11 5 5 5 35 27
100 100 100 100 100 100 100 100 100 100 100 100 100 100 100 100 100 100 100 100 100 100 100 100 100 100 100 100 100 100 100 100 100 100 91 99 95 92 100 100 100 98 57 5 5 53 65 16 5 37 92 26 39 27
83 100 100 100 100 100 100 100 100 100 100 100 100 100 100 100 100 100 100 100 100 100 100 100 100 100 100 100 100 100 100 100 95 100 100 100 98 96 100 100 100 50 67 35 93 22 66 40 5 5 33 72 52 96
5 50 100 100 100 100 100 100 100 100 100 100 100 100 100 100 100 100 100 100 100 100 100 100 100 100 100 100 100 100 100 100 100 100 100 94 100 100 100 74 57 71 95 92 37 62 49 50 62 68 42 91 100 100
5 51 97 42 100 100 100 100 100 100 100 100 100 100 100 100 100 100 100 100 100 100 100 100 100 100 100 100 100 100 100 100 100 100 100 100 100 85 98 100 97 98 100 93 98 98 98 95 62 89 100 100 95 12
71 67 100 59 91 100 100 100 100 100 100 100 100 100 100 100 100 100 100 100 100 100 100 100 100 100 100 100 100 100 100 100 100 100 100 100 100 100 100 100 100 99 95 100 100 100 100 100 100 99 97 16 7 33
48 78 100 100 100 100 100 100 96 97 100 100 100 100 100 100 100 100 100 100 100 100 100 100 100 100 100 100 100 100 100 100 100 100 100 100 100 98 100 100 100 98 100 100 100 100 100 100 91 21 5 52 50 79
98 99 100 100 100 100 100 100 98 96 75 72 92 100 100 100 100 100 100 100 100 100 100 100 100 100 100 100 100 100 100 100 100 100 100 100 100 100 100 100 100 100 100 100 100 99 56 37 38 6 59 44 55 90
100 100 100 100 100 100 83 65 63 67 78 95 100 93 82 100 100 100 100 100 100 100 100 100 100 100 100 100 100 100 100 100 100 100 100 100 100 100 100 100 100 100 100 100 14 5 5 7 11 36 89 91 100 98
100 100 100 100 100 78 88 76 100 100 100 100 100 100 100 100 100 100 100 94 96 7 5 5 22 76 76 86 89 77 87 99 100 100 100 100 87 27 12 19 7 4 2 8 5 21 28 33 64 61 97 100 92 98
100 100 100 100 100 100 99 80 74 93 75 100 100 96 90 98 99 78 95 40 14 5 4 4 5 3 0 0 0 0 0 0 2 0 2 5 5 5 5 5 5 43 15 6 28 40 42 79 100 98 100 98 98 100
100 100 100 100 92 95 82 91 85 99 100 100 100 100 100 99 98 89 48 8 5 4 2 0 0 0 0 0 0 4 5 1 0 4 5 5 5 5 5 5 5 5 17 92 92 74 99 100 100 100 100 100 100 100
100 100 100 100 100 86 82 90 96 82 81 76 40 34 72 65 78 30 24 4 30 57 57 20 4 0 2 5 9 53 66 30 5 5 5 5 6 5 5 5 9 13 33 92 85 98 100 100 100 100 100 100 100 95
100 100 100 100 100 100 100 100 100 100 100 96 92 90 84 91 65 19 6 74 100 100 100 94 51 13 18 62 36 52 78 61 58 38 14 31 66 90 99 100 97 40 80 83 100 98 100 100 100 100 100 99 100 90
100 100 100 100 100 100 100 100 100 100 100 100 100 100 60 8 5 50 79 86 98 100 100 100 100 83 87 83 90 96 100 100 100 100 84 82 91 100 100 100 100 100 100 100 100 100 100 100 100 100 100 100 100 100
100 100 100 100 100 100 100 97 99 100 90 62 32 54 5 5 39 99 98 98 100 99 90 99 99 90 97 99 100 100 100 100 96 87 52 74 100 98 90 100 100 100 100 100 100 100 100 100 100 100 100 100 100 100
99 100 100 100 100 98 94 94 58 15 28 5 40 32 93 89 100 100 98 100 100 100 94 95 98 100 100 100 100 100 100 100 100 97 100 100 98 100 100 100 100 100 100 100 100 100 100 100 100 100 100 100 100 100
100 100 76 82 22 32 85 49 98 97 9 27 33 8 39 100 100 100 100 100 98 100 100 100 100 100 100 100 99 100 100 100 100 100 100 100 100 100 100 100 100 100 100 100 100 100 100 100 100 100 100 100 100 100
100 100 100 87 83 99 100 79 88 64 59 78 78 78 100 100 100 100 100 100 100 100 100 100 100 100 100 100 100 100 100 100 100 100 100 100 100 100 100 100 100 100 100 100 100 100 100 100 100 100 100 100 100 100
100 100 100 92 83 98 70 85 99 90 92 84 90 87 98 100 100 100 100 100 100 100 100 100 100 100 100 100 100 100 100 100 100 100 100 100 100 100 100 100 100 100 100 100 100 100 100 100 100 100 100 100 100 100
95 98 100 93 87 99 61 5 4 4 14 61 99 100 100 100 100 100 100 100 100 100 100 100 100 100 100 100 100 100 100 100 100 100 100 100 100 100 100 100 100 100 100 100 100 100 100 100 100 100 100 100 100 100

GFSWCAN_prec_cloud_024.txt.gz
Cloud_Cover
100 100 100 100 100 100 100 100 100 100 100 100 100 100 100 100 100 100 100 100 100 100 54 30 80 87 99 79 99 73 90 100 97 99 100 100 100 100 99 23 7 22 27 73 89 93 32 4 44 73 42 10 64 99
100 100 100 100 100 100 100 100 100 100 100 100 100 100 100 100 100 100 100 100 100 100 100 45 56 90 92 100 76 62 17 48 12 100 100 84 89 76 77 63 47 5 7 7 5 5 57 100 95 15 74 47 82 86
100 100 100 100 100 100 100 100 100 100 100 100 100 100 100 100 100 100 100 100 100 100 100 76 100 100 100 94 100 100 100 100 100 100 100 92 100 75 98 100 64 21 10 4 5 5 37 77 5 21 13 53 60 97
100 100 100 100 100 100 100 100 100 100 100 100 100 100 100 100 100 100 100 100 100 100 100 100 100 100 100 100 100 100 100 100 100 100 100 100 100 39 94 100 100 100 100 41 7 43 71 95 33 51 26 54 99 84
100 100 100 100 100 100 100 100 100 100 100 100 100 100 100 100 100 100 100 100 100 100 100 100 100 100 100 100 96 86 100 100 100 100 100 99 71 100 87 87 100 100 100 100 14 38 71 20 60 84 35 22 59 78
100 100 100 100 100 100 100 100 100 100 100 100 100 100 100 100 100 100 99 99 100 100 100 100 100 100 86 82 61 81 100 100 100 100 100 82 100 100 98 100 100 100 100 84 100 16 34 76 67 43 94 71 85 95
100 100 100 100 100 100 100 100 100 100 100 100 100 100 100 100 100 93 99 100 100 100 100 93 98 97 100 100 99 100 100 100 100 100 100 100 100 67 100 89 100 100 100 100 94 5 44 99 88 73 99 84 95 99
100 100 100 100 100 100 100 100 100 100 100 100 100 100 100 100 100 100 100 100 100 100 100 89 92 100 100 100 100 100 100 100 100 99 93 100 97 92 100 100 100 100 99 64 7 58 87 100 100 89 84 89 100 100
100 100 100 100 100 100 100 100 100 100 100 100 100 100 100 99 99 100 100 100 100 100 100 100 100 100 100 100 100 100 100 100 90 100 100 71 100 100 100 100 97 90 28 46 95 100 100 96 75 88 83 91 100 100
100 100 100 100 100 100 100 100 100 100 100 100 100 100 100 100 100 100 100 100 100 100 97 100 100 100 100 100 100 100 100 100 100 100 100 100 100 100 100 100 90 94 94 100 100 100 86 77 34 89 100 98 64 17
100 100 100 100 100 100 100 100 100 100 100 100 100 100 100 100 100 100 100 100 100 100 100 100 100 100 100 100 100 100 100 100 100 86 98 97 99 100 100 100 100 100 100 100 100 100 94 48 86 71 85 91 71 24
100 100 100 100 100 100 100 100 100 100 100 100 100 100 100 100 100 100 100 100 100 100 100 100 100 100 100 100 100 100 100 100 100 89 100 89 100 99 100 100 100 100 100 100 100 90 100 100 91 100 92 87 23 25
100 100 100 100 100 100 98 94 100 100 100 100 100 100 100 100 100 100 100 100 100 100 100 100 100 100 100 100 100 100 100 100 100 100 93 100 100 95 99 100 100 98 100 99 99 100 100 100 100 95 71 83 78 91
100 100 100 100 100 100 100 100 100 100 99 100 100 100 100 100 100 100 100 100 100 100 100 100 100 100 100 100 100 100 100 100 100 100 83 100 100 100 96 100 100 76 100 100 100 98 100 100 100 100 100 100 100 100
100 100 100 100 100 100 100 100 100 76 84 94 100 100 100 100 100 100 100 100 100 100 100 100 100 100 100 100 100 100 100 100 100 100 100 100 100 100 100 93 90 95 48 90 100 99 100 100 100 100 100 100 76 81
100 100 100 100 100 100 100 100 100 100 100 98 95 100 100 100 100 100 100 100 100 100 100 100 100 100 100 100 100 100 100 100 100 100 100 100 100 100 100 100 100 100 100 100 100 100 100 100 100 100 100 100 100 100
100 100 100 100 100 100 100 100 100 100 93 100 100 100 100 100 100 100 100 100 100 100 100 100 100 100 100 100 100 100 100 100 100 100 100 100 100 100 100 100 100 100 100 100 100 98 82 95 100 100 100 100 100 100
92 57 95 96 100 99 98 100 76 100 100 100 100 100 100 100 100 100 100 100 100 100 100 100 100 100 100 100 100 100 100 100 100 100 100 100 100 100 100 100 100 100 100 100 100 100 100 100 100 100 99 92 74 34
100 94 66 100 100 100 100 98 67 75 96 100 100 100 100 100 100 100 100 100 100 100 100 100 100 100 100 100 100 100 100 100 100 100 100 100 100 100 100 100 100 100 100 100 100 100 100 100 96 16 5 5 5 23
86 99 100 100 100 100 100 91 74 90 65 71 100 100 100 100 100 100 100 100 100 100 100 100 100 100 100 100 100 100 100 100 100 100 100 100 100 100 100 100 100 100 100 100 100 100 93 17 1 1 2 36 25 29
96 100 100 100 100 100 82 83 71 62 17 84 100 86 100 100 100 100 100 100 100 100 100 100 100 100 100 100 100 100 100 100 100 100 100 100 100 100 100 100 100 50 26 5 5 5 5 5 5 5 69 100 100 100
100 100 100 100 100 100 99 100 95 79 88 97 100 100 100 100 100 100 97 89 64 5 54 87 100 100 100 100 100 100 100 100 100 99 98 80 33 4 4 5 5 3 1 17 8 10 12 5 6 6 95 100 100 100
100 100 100 100 100 97 100 100 97 80 69 97 100 98 100 100 100 90 97 41 8 5 5 40 8 5 4 19 49 37 11 0 1 4 1 2 3 4 5 7 42 66 71 90 50 6 5 5 23 99 100 100 100 96
100 100 100 100 100 100 95 86 72 41 99 100 100 91 98 100 95 99 100 99 27 23 22 5 5 3 2 0 2 36 15 5 5 5 5 5 5 5 5 5 8 28 90 95 96 55 49 20 34 100 100 73 99 100
100 100 100 100 100 100 86 98 96 86 98 100 100 82 91 100 100 100 97 66 83 78 96 44 5 5 42 74 46 68 40 16 43 29 5 5 24 54 43 51 6 5 7 22 43 95 94 97 96 99 100 95 99 100
100 100 100 99 89 100 98 96 87 85 95 95 95 96 88 89 61 19 80 100 100 100 100 100 100 72 90 30 41 63 95 72 78 76 65 80 60 89 92 100 94 74 60 86 100 100 100 100 100 100 100 100 100 100
100 100 91 69 92 99 96 100 100 100 100 98 93 96 100 97 83 63 96 99 100 100 100 100 100 92 93 91 90 99 100 100 93 91 76 93 100 100 100 100 100 100 94 87 93 99 100 100 100 100 100 100 100 100
100 100 100 100 98 100 100 100 100 100 100 100 100 100 100 91 73 100 100 100 100 100 100 100 99 94 100 98 100 98 94 76 62 30 1 100 100 81 29 100 100 100 100 92 100 100 100 100 100 100 100 100 100 100
100 100 100 100 100 100 100 100 100 100 99 98 96 80 86 90 100 100 99 100 100 100 99 98 97 96 97 97 95 99 100 100 100 77 86 92 67 46 79 99 97 96 96 93 100 100 100 100 100 100 100 100 100 100
100 100 100 100 100 100 100 98 97 99 79 97 92 22 82 100 100 100 100 100 100 100 99 98 100 99 100 100 99 97 100 100 100 100 100 100 100 98 100 99 100 94 100 100 99 100 100 100 100 100 100 100 100 100
100 100 100 99 100 100 100 97 100 98 95 87 86 92 99 100 100 100 100 100 100 100 100 100 100 100 100 100 100 100 100 99 100 100 100 100 100 100 100 100 100 100 100 100 100 100 100 100 100 100 100 100 100 100
100 100 100 100 98 99 100 100 100 100 100 100 99 100 100 100 100 100 100 100 100 100 100 100 100 100 100 100 100 100 100 100 100 100 100 100 100 100 100 100 100 100 100 100 100 100 100 100 100 100 100 100 100 100
95 95 88 92 75 86 68 5 7 5 53 59 100 99 98 99 100 100 100 100 100 100 100 100 100 100 100 99 24 100 100 98 64 100 100 100 98 92 100 100 100 100 87 99 100 100 100 100 100 100 100 100 100 100

GFSWCAN_prec_cloud_030.txt.gz
Cloud_Cover
100 100 100 100 100 100 100 100 100 100 100 100 100 100 100 100 100 100 100 100 100 83 53 41 100 100 67 5 5 5 44 100 92 79 57 84 33 74 70 77 76 100 100 100 100 100 30 7 24 63 15 59 63 89
100 100 100 100 100 100 100 100 100 100 100 100 100 100 100 100 100 100 100 100 100 100 69 68 87 100 99 57 5 5 64 7 5 34 61 87 44 84 99 97 100 100 100 100 100 100 96 78 74 10 96 100 60 26
100 100 100 100 100 100 100 100 100 100 100 100 100 100 100 100 100 100 100 100 100 100 100 100 98 100 100 85 7 14 67 63 34 46 87 80 100 100 100 100 100 100 100 100 42 83 92 96 88 66 95 78 100 100
100 100 100 100 100 100 100 100 100 100 100 100 100 100 100 100 100 100 100 100 100 100 100 100 100 100 100 100 100 100 31 6 28 98 100 100 100 100 100 100 100 100 45 14 5 5 5 42 10 5 69 92 100 99
100 100 100 100 100 100 100 100 100 100 100 100 100 100 100 100 100 100 100 100 100 100 100 100 100 100 100 100 100 100 100 100 99 96 100 100 100 100 100 100 100 100 100 33 5 5 5 5 6 26 22 100 99 92
100 100 100 100 100 100 100 100 100 100 100 100 100 100 100 97 92 89 100 100 100 100 100 100 100 100 100 100 100 100 100 100 100 100 100 100 100 100 76 100 100 100 80 12 94 100 100 100 100 100 100 100 100 97
100 100 100 100 100 100 100 100 100 100 100 100 100 100 100 99 27 9 71 96 100 100 100 100 100 100 100 100 100 100 100 100 100 100 100 100 100 99 100 100 100 100 100 100 100 100 100 100 100 100 100 100 100 100
100 100 100 100 100 100 100 100 100 100 100 100 100 100 100 100 85 45 97 100 97 86 90 83 100 100 100 100 100 100 100 98 85 74 100 100 94 96 100 100 100 100 100 100 79 100 100 100 100 100 100 100 100 76
100 100 100 100 100 100 100 100 100 100 100 100 96 100 100 100 100 100 100 100 100 50 94 100 100 100 100 100 100 100 100 100 85 100 100 45 98 95 100 100 78 99 100 100 100 100 100 100 100 100 100 100 100 100
100 100 100 100 100 100 100 100 100 100 100 100 100 100 100 100 100 100 100 100 94 58 78 100 100 100 100 100 100 100 100 100 69 61 89 100 100 99 100 100 100 100 100 100 100 100 100 100 100 100 100 100 100 86
100 100 100 100 100 100 100 100 100 100 100 100 100 100 100 100 100 82 92 100 100 100 100 100 100 100 100 100 100 100 100 100 100 24 94 88 100 100 100 100 100 100 100 100 100 100 100 100 100 100 100 100 99 100
100 100 100 100 100 100 100 100 100 100 100 100 100 100 100 100 100 100 99 100 100 100 100 100 100 100 100 100 100 100 100 100 100 100 100 100 100 100 100 100 100 100 100 100 100 100 100 100 100 100 100 100 100 90
100 100 100 100 100 100 100 100 100 100 100 100 100 100 100 100 100 100 100 100 100 100 100 100 100 100 100 100 100 100 100 100 100 100 100 100 100 100 100 100 100 100 100 100 100 100 100 100 100 100 100 100 100 100
100 100 100 100 100 100 100 100 100 100 100 100 100 100 100 100 100 100 100 100 100 100 100 100 100 100 100 100 100 100 100 100 100 98 88 100 100 100 100 100 100 100 100 100 100 100 100 100 100 100 100 100 100 100
100 100 100 95 100 100 100 100 100 100 98 100 100 100 99 100 100 100 100 100 100 100 100 100 100 100 100 100 100 100 100 100 100 100 100 100 100 100 100 100 100 99 100 100 100 100 100 100 98 100 100 100 100 100
98 100 100 100 100 100 100 100 100 100 100 100 100 100 100 100 100 100 100 100 100 100 100 100 100 100 100 100 100 100 100 100 100 100 100 100 98 96 99 100 97 95 79 84 100 100 100 100 100 100 100 100 100 100
100 100 100 100 99 89 100 100 100 100 100 100 100 100 100 100 100 100 100 100 100 100 100 98 83 100 100 100 100 100 100 100 100 100 100 100 100 100 100 100 100 100 100 100 100 100 100 100 100 100 100 100 100 100
100 100 100 100 100 100 100 100 100 96 100 100 100 100 100 100 100 100 100 100 100 100 94 98 96 100 100 100 100 100 100 100 100 100 100 100 100 100 100 100 100 100 100 100 100 100 100 100 100 100 100 100 96 55
100 100 100 100 100 100 100 100 100 100 100 100 100 100 100 100 100 100 100 100 100 100 100 100 100 97 100 100 100 100 100 100 100 100 100 100 100 100 100 100 100 100 100 100 100 100 100 100 100 76 21 4 5 8
100 100 100 100 100 100 100 100 100 100 100 100 100 100 100 100 100 100 100 100 100 100 100 100 98 100 100 100 100 100 100 100 100 100 100 100 100 100 88 71 91 100 100 99 46 27 10 5 5 5 5 22 99 90
32 98 100 100 100 100 100 100 100 100 100 100 100 100 100 100 100 100 100 100 100 100 100 100 100 100 100 100 100 100 100 100 100 100 100 100 70 5 5 5 5 1 4 5 5 10 10 52 41 27 36 100 95 100
91 61 98 100 99 99 77 72 89 96 100 100 99 100 96 100 100 100 99 96 42 5 5 8 5 17 6 12 5 3 3 8 96 99 42 5 28 42 63 44 6 6 15 39 79 100 100 100 28 43 86 96 70 100
80 69 100 100 63 95 35 100 94 85 80 100 98 99 100 100 100 94 99 94 69 48 71 94 78 90 81 67 54 10 5 5 8 11 10 20 29 13 5 6 32 77 96 87 87 97 90 62 76 79 76 70 100 100
89 81 100 99 96 66 85 81 100 96 86 92 100 99 98 100 98 99 88 92 98 99 99 97 46 65 35 62 91 72 32 5 5 9 10 5 47 58 63 93 91 91 93 99 80 77 86 93 87 98 93 95 92 100
98 42 47 94 97 95 78 64 96 99 85 47 93 96 79 84 92 96 54 98 100 100 89 63 46 59 79 90 96 100 64 44 100 94 88 93 73 8 7 5 5 74 92 100 100 100 99 98 99 100 98 95 100 100
90 46 51 100 99 88 100 100 100 95 88 100 98 100 100 100 84 45 93 100 100 100 96 100 97 94 90 96 98 100 95 55 17 27 93 97 84 79 99 99 98 83 79 86 100 100 100 100 100 100 100 96 94 100
97 78 92 100 100 99 100 99 100 100 100 100 100 100 100 100 100 99 100 100 100 100 100 100 100 90 77 97 99 65 9 5 17 11 94 99 76 9 38 93 100 86 78 73 100 100 100 100 100 100 100 100 92 99
93 100 100 100 100 100 100 100 100 100 100 98 100 100 100 85 100 99 99 100 100 100 100 100 100 93 98 96 94 41 64 15 5 100 100 99 87 44 39 59 46 10 44 9 100 100 92 100 100 100 100 100 100 100
100 100 100 100 100 100 100 100 100 100 100 100 100 100 100 100 100 100 95 100 100 100 100 99 77 93 94 99 76 58 21 6 5 44 100 100 55 33 98 53 38 5 16 96 93 33 44 98 100 100 100 100 100 100
100 100 100 100 100 100 100 100 100 100 100 100 98 100 100 100 100 100 100 100 100 92 100 100 100 91 100 91 88 71 100 99 82 82 100 100 100 99 81 36 5 5 56 99 100 60 5 17 14 84 98 100 100 100
100 100 100 100 100 100 100 100 100 100 100 100 100 100 100 100 100 100 98 90 100 96 96 90 89 97 92 95 99 100 88 57 62 91 97 94 99 100 85 5 5 39 84 100 86 29 93 91 92 67 71 92 100 100
100 100 100 100 98 88 91 100 99 96 100 100 100 98 99 83 95 88 100 100 74 90 100 100 100 100 100 100 100 99 71 91 59 98 72 94 100 57 27 28 69 98 75 13 10 61 95 99 82 64 62 64 95 100
100 100 100 100 97 98 40 5 43 48 99 100 100 100 100 92 85 93 99 93 48 62 90 66 67 90 81 93 54 5 5 18 88 82 67 71 50 93 30 62 82 54 38 18 13 79 97 68 64 58 64 63 70 99

GFSWCAN_prec_cloud_036.txt.gz
Cloud_Cover
100 100 100 100 100 100 100 75 81 100 100 100 100 100 100 100 100 100 100 100 100 76 60 55 88 100 99 58 46 70 58 62 51 80 24 14 47 28 68 55 25 31 94 100 62 46 89 6 5 14 82 100 100 100
100 100 100 100 100 100 100 93 100 100 100 100 100 100 100 100 100 100 100 100 100 100 67 96 99 100 100 62 97 99 82 9 11 33 86 72 93 87 58 82 42 5 15 6 45 6 5 58 100 100 100 73 89 100
100 100 100 100 100 100 100 100 100 100 100 100 100 100 100 100 100 100 85 90 91 47 52 94 100 100 100 97 79 94 99 12 49 66 45 44 54 98 100 100 100 65 75 94 26 99 97 100 100 100 100 100 100 100
100 100 100 99 93 100 100 100 100 100 100 100 100 100 100 100 89 100 100 98 78 70 100 100 98 100 100 100 100 100 100 19 23 5 82 72 56 100 100 44 100 100 100 18 47 100 100 100 100 100 100 100 100 100
100 82 100 90 100 100 100 100 100 100 100 100 100 100 100 100 100 100 100 100 100 87 92 100 100 74 100 100 100 100 100 99 91 85 100 100 100 100 100 100 100 100 100 100 100 100 98 74 95 100 100 100 100 100
100 100 100 100 100 100 100 100 100 100 100 100 100 100 100 100 100 100 100 100 100 100 100 100 100 100 100 100 100 100 100 100 100 100 100 100 100 100 100 100 100 100 98 69 30 6 5 66 75 100 88 63 84 87
100 100 100 100 100 100 100 100 100 100 100 100 100 100 100 100 100 100 100 100 100 100 100 100 100 100 100 100 100 100 100 100 100 100 100 100 100 100 100 100 100 100 97 63 5 7 52 72 67 83 97 100 97 100
100 100 100 100 100 100 100 100 100 100 100 100 100 100 100 100 100 100 100 100 100 100 100 100 100 100 100 100 100 100 100 100 100 100 100 100 100 100 100 100 100 87 93 55 22 51 85 100 100 100 100 100 100 100
100 100 100 100 100 100 100 100 100 100 100 100 100 100 100 100 100 100 100 100 100 100 100 100 100 100 100 100 100 100 100 100 100 100 100 85 100 100 100 100 100 99 100 100 100 100 100 100 100 100 100 100 100 100
100 100 100 100 100 100 100 100 100 100 100 100 100 100 100 100 100 100 100 100 100 100 100 100 100 100 100 100 100 100 99 93 51 85 99 100 100 100 100 100 100 100 100 100 100 100 100 100 100 100 100 100 100 100
100 100 100 100 100 100 100 100 100 100 100 100 100 100 100 99 96 100 98 100 100 100 100 100 100 100 100 100 100 69 94 68 90 15 100 94 100 100 100 100 100 100 100 100 100 100 100 100 100 100 100 100 100 100
100 100 100 100 100 100 100 100 100 100 100 100 100 100 97 96 88 86 86 94 69 99 100 100 100 100 100 100 100 100 100 91 96 95 100 100 100 100 100 100 100 100 100 100 100 100 100 100 100 100 100 100 100 100
100 100 100 100 100 100 100 100 100 100 100 100 100 100 100 99 100 100 100 100 100 100 100 100 100 100 100 100 100 100 100 100 96 100 100 99 100 100 100 100 100 100 100 100 100 100 100 100 100 100 100 100 100 100
100 100 100 100 100 100 100 100 100 100 99 100 100 100 97 100 100 100 100 100 100 100 100 100 100 100 100 100 100 100 100 100 100 97 100 100 100 100 100 100 100 100 100 100 100 100 100 100 100 100 100 100 100 100
100 100 100 100 100 100 100 100 100 100 99 100 96 91 99 100 100 100 100 100 100 100 100 100 100 100 100 100 100 100 100 96 94 94 100 100 100 100 100 100 100 100 100 100 100 97 100 100 100 100 100 100 100 100
100 100 100 100 100 100 100 100 100 100 100 100 95 99 100 100 100 100 100 100 100 100 100 100 100 100 100 100 100 100 100 100 97 100 86 100 100 100 100 100 100 96 88 92 99 100 99 100 100 100 100 100 100 100
100 100 91 96 100 100 100 100 100 100 100 100 100 100 100 100 100 100 100 100 100 100 100 100 100 100 100 100 100 100 99 97 100 100 100 100 100 100 100 100 100 100 100 100 100 100 100 100 100 100 100 100 100 64
100 100 100 100 100 100 100 100 100 100 100 100 100 100 100 94 100 100 100 100 100 100 100 100 91 100 100 100 100 99 95 91 96 97 93 97 100 99 100 100 100 100 100 100 100 100 98 90 76 100 100 93 53 48
100 96 100 100 100 100 98 100 86 99 98 100 100 100 100 100 100 100 100 100 98 98 90 100 89 96 99 98 99 88 91 70 60 61 77 77 66 81 94 69 85 40 49 26 20 52 31 24 87 97 67 96 100 100
100 100 100 100 99 100 100 95 69 79 100 100 100 100 100 100 100 100 100 100 94 82 35 66 69 42 30 19 30 56 37 16 18 51 16 29 58 90 40 31 13 7 8 5 7 12 5 23 62 37 60 93 100 96
92 79 84 73 100 99 99 97 98 99 100 100 100 100 100 100 100 100 100 100 41 70 65 44 52 34 56 41 22 16 22 42 63 94 96 100 34 8 65 73 68 94 79 77 99 61 5 81 98 89 87 89 90 100
79 65 68 90 99 67 99 100 98 96 100 100 100 100 100 100 100 100 100 93 82 60 74 70 52 81 70 92 98 39 19 5 40 21 21 41 58 90 97 80 6 55 90 90 100 100 81 70 58 50 85 86 95 69
100 100 100 100 87 62 90 100 95 99 99 100 100 97 98 100 98 100 100 100 100 97 87 97 98 87 99 100 96 89 90 98 100 100 100 100 100 100 97 96 54 24 5 5 20 45 82 49 44 59 60 45 52 71
100 100 100 100 100 100 100 100 100 100 100 95 100 100 93 100 100 99 100 100 100 100 100 100 100 100 100 100 98 100 100 100 100 100 91 71 77 96 100 100 97 57 21 18 5 21 24 54 46 32 15 63 69 100
6 62 33 61 74 69 100 100 93 98 98 100 100 98 93 88 95 96 100 100 100 100 100 100 100 100 100 100 100 100 99 66 70 96 100 100 100 93 18 26 70 7 36 96 98 100 76 38 54 17 58 76 100 100
41 79 50 95 81 42 94 93 98 95 98 100 99 93 90 99 97 92 99 100 100 100 100 100 100 100 99 100 100 100 100 100 100 99 95 84 95 100 90 49 44 8 36 94 100 100 100 94 100 94 96 79 85 90
83 55 64 94 94 80 73 76 74 92 100 98 100 100 100 100 92 98 100 100 100 100 100 100 100 100 100 100 100 95 96 97 95 77 95 100 82 11 7 67 94 5 27 54 96 100 100 100 100 100 99 65 100 100
85 84 6 12 84 68 86 89 89 100 98 99 100 100 100 100 100 100 100 100 100 100 100 100 100 100 100 100 97 84 98 98 100 100 89 79 92 71 24 10 21 76 81 66 100 100 100 100 100 100 100 100 100 90
87 93 83 93 90 92 98 98 99 100 100 100 100 100 100 100 100 100 100 100 100 100 100 100 100 100 84 95 100 100 99 84 73 6 54 100 91 29 69 38 49 48 95 100 95 82 89 97 99 100 61 73 23 9
84 79 90 82 76 74 100 100 98 98 100 100 100 100 100 100 100 100 100 100 100 100 100 100 100 100 100 97 100 86 91 100 45 19 100 100 90 100 98 100 100 99 100 100 58 47 92 50 92 44 15 18 11 5
95 99 100 96 96 100 98 100 100 100 100 100 100 100 100 100 100 100 100 100 100 100 99 99 100 100 98 100 100 99 58 29 100 100 100 97 100 100 100 100 100 100 85 55 66 100 100 88 97 92 70 26 17 50
100 100 97 94 93 83 81 69 94 100 100 100 100 95 100 97 94 100 100 98 94 76 100 100 100 98 96 100 97 95 22 81 100 100 100 100 100 100 100 99 100 81 59 58 57 81 100 100 93 96 100 99 71 79
83 92 90 94 87 100 99 96 87 97 100 100 100 100 100 99 89 99 100 100 72 25 59 55 66 100 100 78 6 19 58 89 100 100 100 100 100 100 95 100 100 100 92 94 82 99 100 81 91 94 100 100 73 63

GFSWCAN_prec_cloud_039.txt.gz
Cloud_Cover
100 100 100 100 100 100 100 100 100 100 100 100 100 100 100 100 100 100 100 100 100 100 100 100 46 73 98 100 18 38 80 59 86 73 25 9 40 76 48 34 14 5 34 38 36 76 30 5 5 77 100 92 54 100
100 100 100 100 100 100 100 100 100 100 100 100 100 100 100 100 100 100 100 100 100 100 100 94 5 66 99 65 44 72 100 72 73 24 61 76 72 31 46 83 5 42 5 61 13 91 5 5 19 25 25 99 100 100
100 100 100 100 100 100 100 100 100 100 100 100 100 100 100 100 100 100 100 100 100 100 100 25 12 77 74 79 60 100 99 18 6 19 47 50 66 63 61 48 100 70 97 72 5 11 5 9 5 24 100 100 100 100
100 100 100 100 100 100 100 100 100 100 100 100 100 100 100 100 100 100 100 100 100 100 100 41 86 68 49 91 84 100 74 89 83 89 99 84 44 93 64 18 98 76 32 5 39 96 100 100 100 100 100 94 88 16
100 100 100 100 100 100 100 100 100 100 100 100 100 100 100 100 100 100 97 100 100 100 100 49 24 48 99 100 100 100 100 85 100 100 100 87 100 99 99 100 100 100 100 100 100 100 100 100 100 100 94 23 5 12
100 100 100 100 100 100 100 100 100 100 100 100 100 100 100 100 100 100 100 68 70 99 100 88 60 75 100 100 100 100 100 100 100 100 100 100 100 100 100 100 100 100 100 100 100 84 80 55 54 14 5 13 43 41
100 100 100 100 100 100 100 100 100 100 100 100 100 100 100 100 100 100 100 100 100 100 100 100 89 58 88 100 100 100 100 100 100 100 100 100 100 95 99 100 100 100 94 43 10 84 77 11 33 17 21 47 68 94
100 100 100 100 100 100 100 100 100 100 100 100 100 100 100 100 100 100 100 100 100 100 100 100 100 100 100 100 100 100 100 100 100 100 100 100 100 100 100 100 100 100 100 72 58 40 8 8 57 71 96 100 100 100
100 100 100 100 100 100 100 100 100 100 100 100 100 100 100 100 100 100 100 100 100 100 100 100 100 100 100 100 100 100 100 100 100 100 100 100 100 100 100 100 100 100 100 99 79 53 86 100 100 100 100 100 100 100
100 100 100 100 100 100 100 100 100 100 100 100 100 100 100 100 100 100 100 100 100 100 100 100 100 100 100 100 100 100 100 94 99 100 100 100 100 100 100 100 100 100 74 62 100 100 100 100 100 100 100 100 100 100
100 100 100 100 100 100 100 100 100 100 100 100 100 100 100 100 98 100 100 100 100 100 100 100 100 100 100 100 100 100 100 100 93 99 100 100 100 100 100 100 100 100 100 100 100 100 100 100 100 100 100 100 100 100
100 100 100 100 100 100 100 100 100 100 100 100 100 100 100 100 97 91 99 100 100 100 100 100 100 100 100 100 100 100 88 92 84 73 100 100 100 100 100 100 100 100 100 100 100 100 100 100 100 100 100 100 100 100
100 100 100 100 100 100 100 100 100 100 100 100 100 100 100 100 100 100 100 100 100 100 100 100 100 100 100 98 100 99 100 96 80 100 100 100 100 100 100 100 100 100 100 100 100 100 100 100 100 100 100 100 100 100
100 100 100 100 100 100 100 100 100 100 100 100 100 100 92 100 100 100 100 100 100 100 100 100 100 100 100 100 100 100 100 100 100 100 100 100 100 100 100 100 100 100 100 100 100 100 100 100 58 55 80 37 58 49
100 100 100 100 100 100 100 100 100 96 97 100 100 95 100 100 100 100 100 100 100 100 100 100 100 100 100 100 100 99 97 90 87 83 97 100 100 100 100 100 100 99 82 64 50 59 62 38 45 82 75 94 100 100
100 100 100 100 100 100 100 100 100 100 100 100 92 100 100 100 100 100 100 100 100 100 100 100 100 100 99 100 99 100 100 100 90 99 99 100 100 100 100 100 93 92 98 100 97 82 99 100 100 100 99 100 82 88
100 100 100 100 100 100 100 100 100 100 100 100 100 100 100 100 100 100 100 100 100 100 100 100 100 100 100 100 100 100 100 100 100 100 100 100 100 100 100 98 100 100 100 100 100 88 79 64 75 44 22 7 5 12
100 100 100 100 100 100 100 100 100 98 98 100 100 100 100 100 100 100 100 100 100 100 100 100 99 100 100 99 85 74 74 99 97 98 100 100 100 97 100 95 94 44 36 31 22 24 30 21 5 5 5 5 5 5
100 100 100 100 100 100 100 100 100 100 100 100 100 100 100 100 100 100 100 100 90 99 93 97 94 98 96 83 90 90 99 90 42 90 100 97 99 56 20 19 7 64 46 6 5 5 6 57 5 5 5 5 42 47
100 100 100 100 100 100 100 100 100 100 100 100 100 100 100 100 100 100 100 100 95 94 99 99 86 75 74 23 33 71 76 5 5 34 98 95 32 6 26 66 76 8 8 59 54 40 52 20 8 5 5 5 42 14
87 97 100 100 100 99 100 88 91 100 100 100 100 100 100 100 100 100 100 100 61 79 52 69 82 100 74 77 20 5 5 5 5 12 53 100 81 59 31 49 70 98 96 74 59 60 52 24 36 5 14 5 20 68
100 100 100 100 100 98 100 100 100 100 99 100 100 100 100 100 100 100 100 85 92 84 96 93 88 80 81 90 73 55 62 51 39 46 55 48 84 72 57 64 67 67 72 31 12 23 11 5 14 21 26 40 73 81
82 98 99 99 86 43 69 95 78 100 100 100 100 99 100 100 100 100 100 100 100 99 100 100 100 100 100 100 100 100 96 94 91 90 90 99 97 98 96 84 77 55 23 5 5 5 5 34 14 59 72 74 89 94
100 100 86 53 32 95 51 92 96 86 92 95 100 97 94 99 92 95 100 100 100 100 100 100 100 100 100 100 100 100 100 100 100 100 99 98 100 100 100 100 99 88 22 5 5 44 32 50 49 60 74 95 96 100
100 100 100 99 80 97 100 100 72 50 97 92 92 85 100 90 90 99 100 100 100 100 100 100 100 100 100 100 100 100 100 100 100 100 100 100 100 100 100 96 91 84 84 68 70 83 68 61 67 79 83 97 100 100
100 96 83 100 98 93 97 84 98 84 91 86 78 74 82 81 90 98 100 100 100 100 100 100 100 100 100 100 100 100 100 100 100 100 100 100 100 96 88 80 7 5 55 98 100 100 98 84 94 94 90 77 94 100
87 98 99 100 100 99 94 86 90 95 86 93 98 100 99 97 93 98 100 100 100 100 100 100 100 100 100 100 100 100 100 100 100 100 95 99 97 51 5 5 8 12 94 92 99 100 100 100 100 100 100 99 100 100
100 95 62 72 73 93 84 90 100 99 92 100 100 100 100 100 100 100 100 100 100 100 100 100 100 100 100 100 100 100 100 100 100 95 80 69 64 69 34 27 13 96 70 75 91 86 91 100 100 100 100 99 74 85
96 96 79 79 86 96 96 93 98 85 88 79 81 95 96 100 100 100 100 100 100 100 100 99 100 100 100 100 100 100 100 91 59 10 5 5 5 18 43 88 72 62 93 85 58 80 100 100 99 45 8 59 60 53
71 89 72 84 65 94 100 95 94 94 89 81 94 96 97 100 100 100 100 100 100 100 100 100 92 63 78 91 98 100 82 93 34 8 19 63 41 94 96 100 100 88 100 66 11 21 77 35 50 6 5 5 46 54
92 98 95 95 95 96 93 99 100 100 100 99 91 96 100 100 100 100 100 100 100 100 100 98 81 100 73 99 98 60 6 26 99 100 100 97 100 100 100 98 100 100 100 81 57 83 98 61 73 70 53 32 23 52
97 100 93 92 96 76 79 76 86 100 100 100 100 100 97 96 92 100 97 100 78 5 90 100 78 86 99 100 100 91 34 91 87 100 100 100 98 83 99 100 100 100 100 94 72 68 99 85 78 71 73 66 60 56
85 93 97 98 91 99 82 72 50 94 100 100 100 100 100 94 88 98 97 94 93 63 32 52 90 100 100 99 18 13 48 75 99 100 100 100 100 100 100 100 100 98 100 90 88 84 65 76 60 61 62 65 15 25

GFSWCAN_prec_cloud_045.txt.gz
Cloud_Cover
0 0 60 95 100 100 100 100 100 100 100 100 100 100 100 100 100 79 100 100 78 35 100 100 98 100 100 100 100 100 47 12 80 71 62 32 64 50 6 5 5 5 6 72 6 65 63 26 42 96 82 40 14 5
90 100 100 100 100 100 100 100 100 100 100 100 100 100 100 100 100 100 100 99 77 100 100 87 100 100 100 100 100 98 49 10 6 21 95 66 92 70 8 5 5 5 6 18 19 6 7 34 6 32 7 27 38 60
100 100 100 100 100 100 100 100 100 100 100 100 100 100 100 100 100 100 100 59 95 37 97 100 100 100 100 100 100 74 10 6 76 70 86 8 96 5 78 5 5 7 22 77 81 14 5 5 5 5 5 5 5 15
100 100 100 100 100 100 100 100 100 100 100 100 100 100 100 100 100 100 100 92 31 86 100 100 100 100 100 100 100 93 98 12 82 35 32 76 88 12 20 12 8 45 17 23 90 5 18 5 6 5 31 81 100 100
100 100 100 100 100 100 100 100 100 100 100 100 100 100 100 100 100 100 100 100 100 100 100 100 100 100 100 100 100 99 83 25 91 98 68 100 71 88 58 14 73 47 45 9 9 50 54 68 100 100 100 100 64 37
100 100 100 100 100 100 100 100 100 100 100 100 100 100 100 100 100 100 100 100 100 100 100 100 100 100 100 100 96 84 60 5 96 100 100 64 100 90 88 76 98 100 80 84 100 100 100 100 100 100 100 78 86 99
100 100 100 100 100 100 100 100 100 100 100 100 100 100 100 100 99 100 100 100 100 100 100 100 100 100 100 100 78 75 54 28 65 52 93 100 100 100 100 100 100 100 100 100 100 100 78 100 62 48 36 78 92 100
100 100 100 100 100 100 100 100 100 100 100 100 100 100 100 100 100 100 100 100 100 100 100 100 100 100 100 100 100 69 49 34 57 96 98 96 100 100 100 100 100 100 100 100 100 80 18 31 34 66 93 92 98 61
100 100 100 100 100 100 100 100 100 100 100 100 100 100 100 100 100 100 100 100 100 100 100 100 100 100 100 100 100 95 48 98 76 99 99 100 100 100 100 100 100 100 64 93 84 72 68 60 69 96 77 73 63 78
100 100 100 100 100 100 100 100 80 100 100 100 90 100 100 100 100 100 100 100 100 100 100 100 100 100 100 100 100 74 100 83 98 92 66 100 100 100 87 75 82 91 100 91 100 98 94 91 83 100 100 100 98 97
100 100 100 100 100 100 100 100 100 100 100 97 100 100 100 99 100 100 100 100 100 96 68 98 97 100 100 100 100 100 93 82 100 100 100 89 100 100 88 99 97 98 100 100 90 93 76 100 100 100 77 84 98 100
100 100 100 100 100 100 100 100 100 100 100 100 100 100 100 100 100 100 100 100 100 100 100 100 100 100 100 100 100 100 100 88 100 100 95 100 100 100 100 100 100 100 100 97 94 100 100 100 97 100 100 100 100 100
100 100 99 100 100 100 100 100 100 100 100 100 100 99 100 100 100 100 100 100 100 100 100 100 100 100 100 100 100 100 100 100 100 100 99 100 100 100 100 100 100 100 100 100 97 100 100 100 100 100 100 100 100 90
100 100 100 100 100 100 100 100 100 100 100 100 100 100 100 100 100 100 100 100 100 100 100 100 100 100 100 100 100 100 100 99 100 100 100 100 100 100 100 100 100 100 100 100 100 100 100 100 100 100 100 100 100 99
100 100 100 100 100 100 100 100 100 100 100 100 100 100 100 100 100 100 100 100 100 100 100 100 100 99 100 100 97 100 100 100 100 100 100 100 100 100 100 100 100 100 100 100 100 100 100 100 100 100 100 92 58 29
100 100 100 100 100 100 100 100 100 100 100 100 100 100 100 100 100 100 100 100 100 100 100 100 100 100 100 100 99 100 100 100 100 100 100 100 100 100 100 100 100 100 100 100 100 100 100 100 97 75 24 5 2 5
100 100 100 100 100 100 100 100 100 100 100 100 100 100 100 100 100 100 100 100 100 100 100 100 100 100 98 100 100 100 100 98 100 100 100 100 100 100 100 99 98 100 85 82 94 82 30 6 3 0 0 0 0 4
100 100 100 100 100 100 100 100 100 100 100 100 100 100 100 100 100 100 100 100 100 100 100 100 97 100 100 100 100 100 100 100 100 100 100 100 100 98 100 100 99 93 100 86 15 5 5 2 3 0 5 5 5 5
100 100 100 100 100 100 100 100 100 100 100 100 100 100 100 100 100 100 100 100 100 100 100 100 100 100 100 100 100 100 100 100 100 100 100 100 100 100 100 99 100 100 73 53 81 69 5 5 5 5 5 5 5 5
100 100 100 100 100 100 100 100 100 100 100 100 100 100 100 100 100 100 100 100 100 100 100 100 100 100 100 100 100 100 100 96 89 79 99 100 100 100 100 100 100 86 88 99 96 13 5 5 5 5 5 8 8 27
100 100 100 100 100 100 100 100 100 100 100 100 100 100 100 100 100 100 100 100 100 100 100 100 100 100 100 100 100 100 100 88 88 65 71 96 95 93 93 87 96 94 94 100 22 74 75 63 12 5 26 91 92 100
100 100 100 100 100 100 100 100 100 100 100 100 100 100 100 100 100 97 96 69 98 100 100 100 100 100 100 100 100 100 91 79 97 100 100 100 99 98 100 100 100 99 95 93 78 85 81 43 43 93 94 98 76 100
100 99 100 100 100 100 100 100 100 100 100 100 94 95 92 92 95 82 100 100 100 100 100 100 100 100 100 100 97 95 100 100 100 100 100 100 100 100 100 100 99 98 99 97 87 94 100 87 89 73 100 98 100 100
100 100 100 97 92 97 83 97 99 97 97 95 95 99 98 98 93 100 100 100 100 100 100 100 100 100 100 100 100 100 100 100 100 100 100 100 100 100 100 100 100 99 96 74 92 93 97 100 83 97 100 100 100 100
94 95 41 61 43 62 82 96 100 100 100 98 95 100 100 97 100 100 100 100 100 100 100 100 100 100 100 100 100 100 100 100 100 100 100 100 100 100 98 100 94 100 99 100 100 100 100 100 100 100 100 100 100 100
76 100 89 97 76 85 87 98 100 100 100 100 100 100 92 92 100 100 100 100 100 100 100 100 100 100 100 100 100 100 100 100 100 100 100 100 100 100 100 100 100 100 100 100 100 100 100 100 100 100 100 100 100 100
89 100 100 100 100 100 100 100 95 100 100 100 100 100 99 100 100 100 100 100 100 100 100 100 100 100 100 100 100 100 100 100 100 100 100 100 100 100 100 100 100 100 98 100 100 100 100 100 100 100 100 100 100 100
100 100 97 100 100 100 100 100 100 100 100 100 100 100 100 100 100 100 100 100 100 100 100 100 100 100 100 100 100 100 100 100 100 84 100 94 100 100 100 100 98 79 99 100 100 100 100 100 100 100 100 100 100 100
100 100 90 72 97 100 100 100 100 100 100 100 100 100 100 100 100 100 100 100 100 100 100 100 100 100 100 100 100 100 100 99 54 43 83 92 95 100 100 100 100 100 100 100 100 100 100 100 100 100 100 100 100 100
100 99 100 85 97 100 100 100 100 100 98 99 96 97 100 100 100 100 100 100 100 100 100 100 100 100 100 100 100 100 100 80 19 15 5 47 100 100 100 100 100 100 100 100 100 100 100 100 100 100 100 100 100 100
100 100 99 100 100 100 100 100 100 100 100 99 100 100 100 100 100 100 100 100 100 100 100 100 100 100 100 94 90 82 95 100 97 94 97 100 100 100 100 100 100 100 100 100 100 100 100 100 100 100 100 100 100 100
96 99 97 100 100 100 92 100 100 100 100 100 100 100 100 100 100 100 100 100 100 100 64 100 100 100 99 100 100 99 25 84 100 100 100 100 100 100 100 100 100 100 100 100 100 100 100 100 100 100 100 100 100 95
98 98 97 100 99 100 94 94 89 99 100 100 100 100 100 100 100 100 100 100 100 100 100 100 100 100 94 95 84 82 72 99 92 100 100 100 100 100 100 100 100 100 100 100 100 100 100 100 100 100 100 100 100 100

GFSWCAN_prec_cloud_051.txt.gz
Cloud_Cover
100 100 99 83 100 100 49 100 100 100 100 100 62 17 36 28 69 96 100 100 100 93 94 88 52 87 100 92 100 75 23 11 100 100 100 63 24 48 82 100 5 5 58 39 54 84 39 44 77 7 6 5 5 5
100 100 100 100 100 24 99 100 100 100 100 77 5 8 30 6 14 81 100 100 100 100 62 100 100 99 100 50 57 4 5 2 34 98 100 97 96 100 100 100 13 14 38 50 12 12 23 99 91 85 5 5 5 9
100 100 100 55 98 100 99 100 100 98 46 50 16 26 17 4 3 38 100 99 100 100 100 89 86 28 47 86 13 30 51 5 3 37 80 100 97 100 100 100 88 66 30 93 5 8 100 100 66 5 5 6 42 86
56 82 71 88 60 100 100 100 100 96 5 0 0 28 5 4 31 100 82 100 100 100 100 72 57 64 50 92 19 100 100 47 74 100 90 100 100 100 100 100 95 92 40 62 5 6 29 87 39 8 5 5 30 93
5 4 5 5 5 78 96 83 34 46 12 0 0 10 5 82 100 99 100 100 100 100 100 100 100 100 100 80 99 56 100 100 100 100 100 100 100 100 100 41 7 41 73 12 60 38 21 15 93 99 62 92 100 85
82 57 98 54 84 83 5 2 0 1 0 0 0 0 54 100 100 100 100 100 100 100 100 100 100 100 100 92 88 100 100 100 98 85 73 100 100 100 96 9 5 20 46 87 8 28 95 60 43 58 85 71 72 94
100 100 100 86 76 100 100 100 98 100 72 91 97 58 100 100 100 100 100 100 100 100 100 100 100 100 100 94 87 41 5 25 100 72 100 100 100 100 96 5 5 53 59 21 71 88 96 78 46 61 42 36 46 100
100 100 100 100 100 100 100 100 100 100 100 100 100 98 97 100 100 100 100 100 100 100 100 99 100 96 100 92 99 38 100 100 100 100 100 100 100 100 99 57 77 66 53 20 5 5 20 65 65 89 100 100 100 100
100 100 100 100 100 100 100 100 100 100 100 100 100 100 100 100 100 100 100 100 100 79 86 100 100 100 100 100 77 51 100 100 100 100 100 100 100 100 100 100 100 70 66 100 100 78 21 38 80 99 79 84 100 100
100 100 100 100 100 100 100 100 100 100 100 100 100 100 100 100 100 100 100 100 100 100 100 100 100 100 100 100 100 100 100 100 100 100 100 100 100 100 100 100 100 100 100 68 66 41 85 99 100 100 81 92 100 100
100 100 100 100 100 100 100 100 100 100 100 100 100 100 100 100 100 100 100 100 100 100 100 100 100 100 100 100 100 100 100 100 100 100 100 100 100 100 100 100 100 100 100 100 100 100 98 100 100 100 100 100 100 100
100 100 100 100 100 100 100 100 100 100 100 100 100 100 100 100 100 100 100 100 100 100 100 100 100 100 100 100 79 100 100 100 90 79 100 91 100 100 100 100 100 100 100 100 100 100 100 100 100 100 100 100 100 100
100 100 100 100 100 100 100 100 100 100 100 100 100 100 100 92 100 100 100 100 100 99 100 95 100 100 100 100 99 100 100 85 98 84 99 100 100 100 100 100 100 100 100 100 100 100 100 100 100 100 100 100 100 100
100 100 100 100 100 100 100 100 100 100 100 100 100 100 100 100 100 100 100 100 100 100 100 100 100 100 100 100 100 69 100 100 100 100 100 100 100 100 100 100 100 100 100 100 100 100 100 100 100 100 100 100 100 100
100 100 100 100 100 100 100 100 100 100 100 100 100 100 100 100 100 100 100 100 100 100 100 100 100 100 100 100 100 100 100 100 100 100 100 100 100 100 100 100 100 100 100 100 100 100 100 100 100 100 100 100 100 100
100 100 100 100 100 100 100 100 100 100 100 100 100 100 100 100 100 100 100 100 100 100 100 100 100 100 100 100 100 100 100 100 100 100 100 100 100 100 100 100 100 100 100 100 100 100 100 100 100 100 100 100 100 100
100 100 100 100 100 100 100 100 100 100 100 100 100 100 100 100 100 100 100 100 100 100 100 100 100 100 100 100 100 100 100 100 100 100 100 100 100 100 100 100 100 100 100 100 100 100 100 100 100 100 100 100 100 100
100 100 100 100 100 100 100 100 100 100 100 100 100 100 100 100 100 100 100 100 100 100 100 100 100 100 100 100 100 100 100 100 100 100 100 100 100 100 100 100 100 100 100 100 100 100 100 100 100 100 95 68 17 5
92 100 100 100 100 100 100 100 100 100 100 100 100 100 100 100 100 100 100 100 100 100 100 100 100 100 100 100 100 100 100 100 100 100 100 100 100 100 100 100 100 100 100 100 100 99 86 64 5 37 14 44 43 5
53 93 100 100 100 100 100 100 100 100 100 100 100 100 100 100 100 100 100 100 100 100 100 100 100 100 100 100 100 100 100 100 100 100 100 100 100 100 100 100 100 100 96 93 89 100 92 88 99 98 64 91 67 16
5 47 97 100 100 100 100 100 100 100 100 100 100 100 100 100 100 100 100 100 100 100 100 100 100 100 100 100 100 100 100 100 100 100 100 100 100 100 100 100 100 100 100 100 100 95 100 100 100 82 48 71 48 28
20 6 48 70 100 100 100 100 100 100 100 100 100 100 100 100 100 100 100 100 100 100 100 100 100 100 100 100 100 100 100 100 100 100 100 100 100 100 100 100 100 100 100 100 100 100 100 100 90 69 70 82 68 83
100 81 31 38 100 100 100 100 100 100 100 100 100 100 100 100 100 100 100 100 100 100 100 100 100 100 100 100 100 100 100 100 100 100 100 100 100 100 100 100 100 100 100 100 100 100 100 100 100 95 97 85 12 85
99 100 95 80 59 99 100 100 100 100 100 100 100 100 100 100 100 100 100 100 100 100 100 100 100 100 100 100 100 100 100 100 100 100 100 100 100 100 100 100 100 100 100 100 100 100 100 100 87 87 82 71 88 92
95 100 99 100 94 99 100 100 100 100 100 100 100 100 100 100 100 100 100 100 100 100 100 100 100 100 100 100 100 98 98 93 100 100 100 100 100 100 100 100 100 100 100 100 100 100 96 93 96 100 100 92 99 77
100 99 83 100 99 100 100 100 100 100 100 100 100 100 100 100 100 100 100 100 100 100 100 100 100 82 92 92 87 87 100 93 95 92 100 95 99 100 100 100 100 100 100 100 100 100 100 97 70 70 61 25 83 100
100 100 100 100 100 100 100 96 97 100 100 100 100 100 100 100 100 100 100 100 100 100 100 99 96 90 92 91 76 81 85 86 79 77 84 88 96 99 90 71 74 45 63 22 5 6 64 61 76 58 70 100 100 100
99 100 100 100 100 100 100 100 100 98 99 88 84 84 78 100 100 100 100 100 94 94 90 84 78 76 84 88 89 88 87 95 89 87 61 76 38 9 6 36 83 88 100 99 84 84 72 98 53 10 72 65 41 5
100 100 71 100 99 95 85 99 100 100 100 99 67 96 97 99 100 100 100 100 98 86 84 98 100 82 86 81 79 77 48 20 5 16 18 98 100 63 5 87 86 26 55 81 88 96 100 100 100 100 80 100 100 98
99 86 96 94 100 100 100 86 97 100 90 23 28 93 92 100 100 98 99 100 100 98 97 98 100 90 99 99 100 84 32 5 5 50 99 100 100 79 89 100 100 76 88 96 58 72 42 54 73 88 92 94 100 100
100 61 62 94 100 100 100 94 78 30 8 23 11 7 83 86 99 100 100 100 100 100 88 93 76 64 52 62 76 74 76 78 100 76 5 35 31 62 83 90 94 83 64 100 100 96 96 97 100 100 100 100 100 100
97 76 57 96 91 100 100 100 100 99 97 64 89 38 96 90 94 99 100 96 98 96 86 75 70 82 7 17 49 20 55 100 96 12 74 88 74 43 7 6 61 70 42 62 100 100 100 97 100 100 100 100 100 94
84 6 24 94 100 100 14 77 99 83 89 98 98 100 92 89 91 96 98 88 63 91 100 90 100 100 96 50 24 99 92 83 7 69 92 86 89 70 78 31 8 13 53 55 56 30 36 98 100 100 100 100 100 98

GFSWCAN_prec_cloud_054.txt.gz
Cloud_Cover
100 100 100 100 100 100 100 100 68 5 5 20 93 100 100 100 100 56 100 100 100 100 26 5 11 77 100 55 92 100 98 98 100 99 94 97 100 100 90 26 38 5 16 100 34 58 79 100 96 8 5 5 5 5
100 100 100 100 100 100 100 97 45 86 5 9 100 93 100 100 100 82 100 100 100 100 49 70 21 6 99 50 52 100 81 100 100 100 100 100 100 100 100 100 5 1 45 38 42 7 97 94 82 5 5 5 5 5
100 100 100 100 100 97 19 10 8 53 29 100 100 100 100 93 5 16 19 100 100 100 74 100 80 57 100 65 100 99 85 100 100 12 80 89 100 100 98 100 97 0 34 39 5 92 73 87 30 5 5 5 8 26
95 83 80 99 71 78 94 100 100 100 100 100 100 100 99 50 42 33 100 38 98 100 100 89 93 100 100 100 100 62 60 100 100 98 93 100 100 100 99 66 66 5 99 36 23 92 7 69 68 9 5 5 48 87
100 100 99 13 90 100 100 100 100 100 100 100 100 100 100 62 61 73 93 62 100 78 94 69 98 100 100 100 97 100 100 100 100 59 100 98 100 100 100 72 8 5 100 89 83 10 12 10 38 27 30 66 95 82
25 68 38 100 100 100 100 100 100 100 100 100 86 78 97 24 5 16 88 95 100 100 100 100 100 100 99 96 100 100 100 87 26 98 100 100 100 100 88 42 76 18 100 100 83 8 5 5 7 32 93 99 91 100
48 100 100 100 100 100 100 100 100 100 100 100 92 31 5 32 5 5 18 9 51 100 100 100 100 100 92 100 100 100 100 100 100 100 100 100 100 100 88 81 100 100 100 100 100 76 6 5 10 28 59 65 98 98
5 29 100 100 100 100 100 100 96 92 18 6 10 5 6 62 100 19 100 94 96 100 100 100 93 100 100 100 96 100 98 100 100 100 100 100 100 97 48 98 100 100 100 100 100 100 73 5 5 5 5 55 58 44
16 7 55 12 32 3 3 17 6 4 3 5 6 14 81 97 100 72 100 100 100 100 100 100 100 100 100 100 100 100 100 100 100 100 100 100 100 100 90 100 100 100 100 100 100 100 100 77 8 5 34 100 100 100
54 96 77 6 3 1 4 5 5 1 6 36 98 100 100 100 100 100 100 100 100 100 100 100 100 100 73 100 100 100 100 100 100 100 100 100 100 100 100 100 100 100 100 100 100 100 100 100 91 61 55 92 100 94
100 100 100 64 34 27 59 87 100 100 100 100 100 100 100 100 100 100 100 100 100 100 100 100 100 100 84 100 97 73 99 99 100 100 86 87 100 100 100 100 100 100 100 100 100 100 100 100 100 100 100 100 100 100
100 100 100 100 100 98 83 100 100 100 100 100 100 100 100 100 100 100 100 100 100 100 100 100 100 100 97 99 70 75 63 59 78 100 100 100 100 100 100 100 100 100 100 100 100 100 100 100 100 100 100 100 100 100
100 100 100 100 100 100 100 100 100 100 100 100 100 100 100 100 100 100 100 100 100 100 100 100 100 100 100 64 100 90 49 100 100 100 100 99 100 100 100 100 100 100 100 100 100 100 100 100 100 100 100 100 100 100
100 100 100 100 100 100 100 100 100 100 100 100 100 100 100 100 100 100 100 100 100 100 100 100 100 100 100 100 100 98 100 84 50 60 96 100 100 100 100 100 100 100 100 100 100 100 100 100 100 100 100 100 100 100
100 100 100 100 100 100 100 100 100 100 100 100 100 100 100 100 100 100 100 100 100 100 94 87 100 100 100 100 100 100 100 100 100 100 100 100 100 100 100 100 100 100 100 100 100 100 100 100 100 100 100 100 100 100
100 100 100 100 100 100 100 100 100 100 100 100 100 100 100 100 100 100 100 100 100 100 95 69 100 100 100 100 100 100 100 100 100 100 100 100 100 100 100 100 100 100 100 100 100 100 100 100 100 100 100 100 100 100
100 100 100 100 100 100 100 100 100 100 100 100 100 100 100 100 100 100 100 100 100 100 100 100 100 100 100 100 100 100 100 100 100 100 100 100 100 100 100 100 100 100 100 100 100 100 100 100 100 100 100 100 100 100
100 100 100 100 100 100 100 100 100 100 100 100 100 100 100 100 100 100 100 100 100 100 100 100 100 100 100 100 100 100 100 100 100 100 100 100 100 100 100 100 100 100 100 100 100 100 100 100 100 100 100 100 100 100
99 100 100 100 100 100 100 100 100 100 100 100 100 100 100 100 100 100 100 100 100 100 100 100 100 91 100 100 100 100 100 100 100 100 100 100 100 100 100 100 100 100 100 100 100 100 100 100 100 100 100 100 100 100
100 100 99 100 100 85 100 100 100 100 100 100 100 100 100 100 100 100 100 100 100 100 100 100 100 100 100 100 100 100 100 100 100 100 100 100 100 100 100 100 100 100 100 100 100 100 100 100 100 100 100 100 97 94
27 16 53 100 100 100 100 100 100 100 100 100 100 100 100 100 100 100 100 100 100 100 100 100 100 100 100 100 100 100 100 100 100 100 100 100 100 100 100 100 100 100 100 100 100 100 100 100 100 100 100 100 98 99
100 100 82 35 94 100 100 100 100 100 100 100 100 100 100 100 100 100 100 100 100 100 100 100 100 100 100 100 100 100 100 100 100 99 99 99 99 94 98 100 100 100 100 100 100 100 100 100 100 100 100 100 100 100
100 100 97 30 13 54 100 100 100 100 100 100 100 100 100 100 100 100 100 100 100 100 100 100 100 100 100 100 100 100 100 100 100 100 100 100 100 100 100 100 100 100 100 100 100 100 100 100 100 100 100 100 100 100
100 100 100 99 81 82 44 100 100 100 100 100 100 100 100 100 100 100 100 100 100 100 100 100 100 100 100 100 100 100 100 100 100 100 100 100 99 100 100 100 100 100 100 100 100 100 100 100 100 100 100 100 100 99
100 100 100 100 100 100 100 100 100 100 100 100 100 100 100 100 100 100 100 100 100 100 100 100 100 100 100 100 100 100 95 85 96 99 100 100 100 100 100 100 100 100 100 100 100 100 100 100 100 100 100 92 80 79
85 98 100 100 100 100 100 100 100 100 100 100 100 100 100 100 100 100 100 100 100 100 100 100 100 100 100 100 100 100 100 100 100 68 99 93 80 96 100 100 100 100 100 100 100 97 91 64 80 69 96 79 99 100
96 100 100 100 100 100 100 100 100 100 100 100 100 100 100 100 100 100 100 100 100 100 100 100 100 99 100 100 98 80 56 66 77 72 72 68 56 32 10 26 14 66 79 6 13 27 98 100 100 72 97 95 74 74
93 98 89 73 78 97 100 100 100 100 100 100 100 100 99 95 100 100 100 100 100 100 100 100 98 78 76 79 72 74 83 87 93 77 25 12 6 59 100 95 88 74 81 83 88 100 99 99 100 100 100 100 99 42
99 67 6 5 10 52 93 98 100 100 100 100 72 98 100 100 100 100 100 100 100 100 100 100 100 94 89 85 84 54 72 60 85 36 100 100 93 68 95 100 100 99 100 76 51 42 98 100 98 99 98 84 98 100
65 62 6 60 69 100 100 96 99 91 16 51 49 100 89 100 100 100 100 100 100 100 100 94 97 97 91 87 100 74 70 19 5 7 96 100 100 96 99 91 92 95 99 100 93 96 96 50 92 61 40 58 100 92
87 31 29 61 97 100 100 95 56 4 20 26 54 52 76 88 100 100 100 100 99 100 99 83 77 85 78 93 97 87 93 97 100 72 54 76 96 92 96 86 84 100 76 55 64 91 100 98 97 100 90 82 100 100
28 49 50 91 95 100 94 100 90 71 98 83 97 85 94 34 92 95 95 97 96 87 99 95 83 66 76 94 88 100 100 100 100 100 98 99 100 87 81 75 100 75 95 100 100 100 97 100 94 92 97 95 100 100
8 5 64 83 98 98 80 100 100 95 83 99 100 100 100 88 89 94 99 87 75 100 100 99 95 98 100 95 56 88 98 71 88 85 100 83 85 75 46 68 98 100 100 100 100 100 100 94 60 74 89 83 88 100

GFSWCAN_prec_cloud_057.txt.gz
Cloud_Cover
100 100 100 100 100 100 100 100 100 100 84 31 96 27 57 60 100 100 100 100 100 100 27 25 8 5 4 2 69 100 100 100 99 89 100 100 100 100 100 100 100 100 76 15 6 97 30 100 100 43 5 2 1 5
100 100 100 100 100 100 100 100 100 100 100 97 82 30 90 100 100 100 100 100 100 100 95 54 4 0 0 3 89 99 38 100 100 100 100 100 100 100 100 100 100 100 100 27 8 4 5 80 100 99 6 5 5 5
100 100 100 100 100 100 100 100 100 100 50 16 17 49 18 100 100 100 100 100 100 100 9 4 3 3 0 4 100 37 89 100 100 100 100 100 100 100 100 100 100 100 100 16 7 55 5 94 100 100 50 5 16 33
100 100 100 100 100 100 100 100 100 77 36 6 98 98 65 100 100 100 100 100 100 100 100 14 11 70 11 14 97 82 100 100 100 100 100 100 76 100 100 100 100 100 99 88 83 99 93 85 100 100 100 89 66 72
100 100 100 100 100 100 100 98 70 92 76 78 66 82 100 100 100 100 100 98 100 100 99 38 100 100 99 54 90 100 100 100 100 100 100 100 61 100 100 100 100 100 100 100 94 100 88 81 98 100 100 100 99 100
100 100 100 13 5 5 5 48 24 26 5 14 84 100 100 100 100 100 100 100 100 100 98 97 34 81 60 90 100 100 100 100 100 100 100 100 100 100 100 100 100 100 100 100 100 100 100 100 97 100 100 100 100 100
100 94 93 97 86 99 100 100 96 99 100 100 100 100 100 100 100 100 89 29 82 100 100 100 99 94 100 100 100 100 100 100 100 100 100 100 100 100 100 100 100 100 100 100 100 100 100 100 100 100 100 100 100 100
76 91 100 100 100 100 100 100 100 100 100 100 100 99 82 58 90 78 83 86 100 100 100 100 100 100 100 100 100 100 100 100 100 100 100 100 100 100 100 100 100 100 100 100 100 100 100 100 100 100 100 100 100 100
97 100 61 57 90 100 100 91 100 98 100 100 100 100 100 98 13 92 100 91 84 77 89 100 100 100 100 100 100 100 100 100 100 100 100 100 100 99 61 100 100 100 100 100 100 100 100 99 76 99 98 100 100 100
8 97 100 5 5 6 18 97 41 58 50 5 71 93 80 6 99 100 100 100 100 100 100 100 100 100 100 100 100 100 100 100 100 100 100 100 100 100 100 100 100 99 100 100 100 98 100 98 100 60 99 100 100 100
4 1 0 4 11 19 1 0 8 48 2 2 74 89 63 69 99 82 54 100 100 100 100 100 100 100 100 100 100 100 100 100 100 100 100 100 100 100 100 100 97 100 100 100 100 100 100 100 100 100 100 100 100 100
3 0 0 0 8 0 0 5 77 100 100 100 98 99 100 94 67 100 100 100 100 100 100 100 100 100 100 100 100 100 100 100 100 100 100 100 100 100 100 100 98 100 100 100 100 100 100 100 100 100 100 100 100 100
55 98 100 100 100 100 100 98 100 100 100 100 100 95 99 100 100 100 100 100 100 100 100 100 100 100 100 100 100 100 95 97 100 100 100 100 100 100 100 100 100 100 100 100 100 100 100 100 100 100 100 100 100 100
100 100 100 100 100 100 100 100 100 100 100 100 100 100 100 100 100 100 100 100 100 100 100 100 100 100 100 100 100 100 99 97 100 100 100 100 100 100 100 100 100 100 100 100 100 100 100 100 100 100 100 100 100 100
100 100 100 100 100 100 100 100 100 100 100 100 100 100 100 100 100 100 100 100 100 100 100 100 97 100 100 100 100 98 100 99 67 89 100 100 100 100 100 100 100 100 100 100 100 100 100 100 100 100 100 100 100 100
100 100 100 100 100 100 100 100 100 100 100 100 100 100 100 100 100 100 100 100 100 100 100 100 100 100 100 95 96 100 99 100 100 100 100 100 100 100 100 100 100 100 100 100 100 100 100 100 100 100 100 100 100 100
100 100 100 100 100 100 100 100 100 100 100 100 100 100 100 100 100 100 100 100 100 100 100 100 100 100 100 100 100 100 100 100 100 100 100 100 100 100 100 100 100 100 100 100 100 100 100 100 100 100 100 100 100 100
100 100 100 100 100 100 100 89 86 97 100 100 100 100 100 100 100 100 100 100 100 100 100 100 100 100 100 100 100 100 100 100 100 100 100 100 100 100 100 100 100 100 100 100 100 100 100 100 100 100 100 100 100 100
100 100 100 100 100 100 100 100 83 80 100 100 100 100 100 100 100 100 100 100 99 98 99 97 100 100 100 100 100 100 100 100 100 100 100 100 100 100 100 100 100 100 100 100 100 100 100 100 100 100 100 100 100 99
100 100 100 100 100 100 100 100 99 100 100 100 100 100 100 100 100 100 100 100 100 100 100 100 100 100 100 100 100 100 100 100 100 100 100 100 100 100 100 100 100 100 100 100 99 99 100 100 100 100 100 100 100 98
100 100 100 100 100 100 100 100 100 100 100 100 100 100 100 100 100 100 100 100 100 100 100 100 100 100 100 100 100 100 100 100 100 100 100 100 100 100 100 100 100 100 99 100 100 100 100 100 100 100 100 100 100 100
100 68 97 100 100 100 100 100 100 100 100 100 100 100 100 100 100 100 100 100 100 100 100 100 100 100 100 100 100 100 100 100 100 100 100 100 100 100 100 100 100 100 100 100 100 100 100 100 100 100 100 100 100 100
100 100 100 100 95 92 100 100 100 100 100 100 100 100 100 100 100 100 100 100 100 100 100 100 100 100 100 100 100 100 100 100 100 100 100 100 100 100 100 100 100 100 100 100 100 100 100 100 100 100 100 100 100 100
96 100 100 100 100 100 100 100 100 100 100 100 100 100 100 100 100 100 100 100 100 100 100 100 100 100 100 100 100 100 100 100 100 100 100 98 99 100 100 100 100 100 100 100 99 100 100 100 100 100 100 100 100 100
75 74 52 98 96 100 100 100 100 100 100 100 100 100 100 100 100 100 100 100 100 100 100 100 100 100 100 100 100 100 100 100 100 100 100 100 100 100 100 100 100 100 89 83 94 100 100 100 100 100 100 100 92 97
81 82 53 90 90 58 96 100 100 100 100 100 100 100 100 100 100 100 100 100 100 100 100 100 100 100 100 100 100 100 100 100 100 100 100 100 100 100 100 82 74 96 77 67 60 50 54 74 96 59 74 99 100 100
82 90 96 99 92 92 86 20 54 100 100 100 100 100 100 100 100 100 100 100 100 100 100 100 100 100 100 100 100 100 100 100 100 100 100 100 100 94 73 46 100 98 100 80 82 95 100 100 100 100 99 100 100 100
98 98 84 15 33 10 73 56 68 89 95 100 89 100 100 100 100 100 100 100 100 100 100 100 100 100 100 100 100 100 100 100 100 99 92 43 62 97 100 100 97 98 98 100 100 100 100 100 100 93 100 100 99 63
88 39 6 67 11 54 87 95 100 100 99 98 54 93 99 99 100 100 100 100 100 99 98 97 99 97 95 81 58 40 60 22 5 6 96 100 91 65 70 69 68 75 97 94 80 92 99 100 99 100 97 99 96 84
39 23 28 79 53 100 100 95 95 59 23 58 72 100 88 100 100 100 99 95 89 95 98 89 92 82 100 49 99 74 96 38 7 5 82 100 98 92 100 100 100 100 100 99 76 40 70 71 92 78 75 48 72 100
56 5 54 88 100 100 98 36 9 8 18 7 36 56 95 99 100 100 95 90 80 71 36 92 100 95 70 100 100 87 100 100 100 100 99 98 100 100 100 100 100 100 100 99 100 100 100 100 100 100 66 32 42 93
18 94 61 83 100 99 100 94 55 88 100 45 100 91 81 66 85 91 98 100 86 87 100 100 100 100 100 100 100 98 98 100 100 100 100 100 92 100 100 100 100 100 100 100 100 100 100 100 95 73 100 100 53 57
40 7 60 79 94 99 100 100 100 91 94 95 100 100 100 48 86 93 96 92 43 93 82 90 97 98 100 100 70 79 84 95 100 95 100 100 97 99 96 100 100 100 100 100 100 100 100 100 97 100 95 83 78 14